Observation data for Earth on 04/23/2019      Previous  Date  Next       Current Mesonet Observations  Soil Data  Daily Summary Page  Observations in Plain Language
KEA1 230500Z 03011KT 11/10 A301 RMK A01 T01120098  RH  091%=      5-min Rain = 0
KEA1 230501Z 03011KT 11/10 A301 RMK A01 T01120098  RH  091%=      5-min Rain = 0
KEA1 230502Z 04010KT 11/10 A301 RMK A01 T01120098  RH  091%=      5-min Rain = 0
KEA1 230503Z 04009KT 11/10 A301 RMK A01 T01120098  RH  091%=      5-min Rain = 0
KEA1 230504Z 04010KT 11/10 A301 RMK A01 T01120098  RH  091%=      5-min Rain = 0
KEA1 230505Z 04009KT 11/10 A301 RMK A01 T01120098  RH  091%=      5-min Rain = 0
KEA1 230506Z 04009KT 11/10 A301 RMK A01 T01120098  RH  091%=      5-min Rain = 0
KEA1 230507Z 04010KT 11/10 A301 RMK A01 T01120098  RH  091%=      5-min Rain = 0
KEA1 230508Z 05009KT 11/10 A301 RMK A01 T01120098  RH  091%=      5-min Rain = 0
KEA1 230509Z 04009KT 11/10 A301 RMK A01 T01120098  RH  091%=      5-min Rain = 0
KEA1 230510Z 05009KT 11/10 A301 RMK A01 T01120098  RH  091%=      5-min Rain = 0
KEA1 230511Z 04009KT 11/10 A301 RMK A01 T01120098  RH  091%=      5-min Rain = 0
KEA1 230512Z 04009KT 11/10 A301 RMK A01 T01120098  RH  091%=      5-min Rain = 0
KEA1 230513Z 04010KT 11/10 A301 RMK A01 T01120098  RH  091%=      5-min Rain = 0
KEA1 230514Z 05008KT 11/10 A301 RMK A01 T01120098  RH  091%=      5-min Rain = 0
KEA1 230515Z 05009KT 11/10 A301 RMK A01 T01120098  RH  091%=      5-min Rain = 0
KEA1 230516Z 05009KT 11/10 A301 RMK A01 T01120098  RH  091%=      5-min Rain = 0
KEA1 230517Z 05010KT 11/10 A301 RMK A01 T01110098  RH  091%=      5-min Rain = 0
KEA1 230518Z 05009KT 11/10 A301 RMK A01 T01110098  RH  091%=      5-min Rain = 0
KEA1 230519Z 05010KT 11/10 A301 RMK A01 T01110098  RH  091%=      5-min Rain = 0
KEA1 230520Z 05009KT 11/10 A301 RMK A01 T01110098  RH  091%=      5-min Rain = 0
KEA1 230521Z 05010KT 11/10 A301 RMK A01 T01110098  RH  092%=      5-min Rain = 0
KEA1 230522Z 05010KT 11/10 A301 RMK A01 T01110098  RH  092%=      5-min Rain = 0
KEA1 230523Z 05010KT 11/10 A301 RMK A01 T01110097  RH  091%=      5-min Rain = 0
KEA1 230524Z 05010KT 11/10 A301 RMK A01 T01110098  RH  091%=      5-min Rain = 0
KEA1 230525Z 05010KT 11/10 A301 RMK A01 T01100097  RH  091%=      5-min Rain = 0
KEA1 230526Z 05011KT 11/10 A301 RMK A01 T01100097  RH  092%=      5-min Rain = 0
KEA1 230527Z 04011KT 11/10 A301 RMK A01 T01100097  RH  092%=      5-min Rain = 0
KEA1 230528Z 05010KT 11/10 A301 RMK A01 T01100097  RH  092%=      5-min Rain = 0
KEA1 230529Z 05009KT 11/10 A301 RMK A01 T01090096  RH  092%=      5-min Rain = 0
KEA1 230530Z 04008KT 11/10 A301 RMK A01 T01090096  RH  092%=      5-min Rain = 0
KEA1 230531Z 04008KT 11/10 A301 RMK A01 T01090096  RH  092%=      5-min Rain = 0
KEA1 230532Z 04010KT 11/10 A3009 RMK A01 T01080096  RH  092%=      5-min Rain = 0
KEA1 230533Z 04008KT 11/10 A3009 RMK A01 T01080096  RH  092%=      5-min Rain = 0
KEA1 230534Z 04010KT 11/10 A3009 RMK A01 T01070095  RH  092%=      5-min Rain = 0
KEA1 230535Z 04009KT 11/10 A3009 RMK A01 T01080095  RH  092%=      5-min Rain = 0
KEA1 230536Z 04008KT 11/10 A3009 RMK A01 T01080095  RH  092%=      5-min Rain = 0
KEA1 230537Z 04010KT 11/10 A3009 RMK A01 T01070095  RH  092%=      5-min Rain = 0
KEA1 230538Z 03009KT 11/10 A3009 RMK A01 T01070095  RH  092%=      5-min Rain = 0
KEA1 230539Z 03010KT 11/10 A3009 RMK A01 T01070095  RH  092%=      5-min Rain = 0
KEA1 230540Z 03010KT 11/10 A3009 RMK A01 T01070095  RH  092%=      5-min Rain = 0
KEA1 230541Z 03011KT 11/09 A3009 RMK A01 T01070094  RH  092%=      5-min Rain = 0
KEA1 230542Z 03009KT 11/09 A3009 RMK A01 T01070094  RH  092%=      5-min Rain = 0
KEA1 230543Z 03009KT 11/09 A3009 RMK A01 T01070094  RH  092%=      5-min Rain = 0
KEA1 230544Z 03009KT 11/10 A3009 RMK A01 T01070095  RH  092%=      5-min Rain = 0
KEA1 230545Z 03009KT 11/10 A3009 RMK A01 T01070095  RH  092%=      5-min Rain = 0
KEA1 230546Z 03008KT 11/10 A3009 RMK A01 T01070095  RH  092%=      5-min Rain = 0
KEA1 230547Z 03009KT 11/10 A3009 RMK A01 T01080095  RH  092%=      5-min Rain = 0
KEA1 230548Z 03008KT 11/10 A301 RMK A01 T01080095  RH  092%=      5-min Rain = 0
KEA1 230549Z 03008KT 11/10 A301 RMK A01 T01080095  RH  092%=      5-min Rain = 0
KEA1 230550Z 03008KT 11/10 A301 RMK A01 T01080095  RH  092%=      5-min Rain = 0
KEA1 230551Z 04007KT 11/10 A301 RMK A01 T01080095  RH  092%=      5-min Rain = 0
KEA1 230552Z 03008KT 11/10 A301 RMK A01 T01080095  RH  092%=      5-min Rain = 0
KEA1 230553Z 04009KT 11/10 A301 RMK A01 T01070095  RH  092%=      5-min Rain = 0
KEA1 230554Z 04008KT 11/10 A301 RMK A01 T01080095  RH  092%=      5-min Rain = 0
KEA1 230555Z 03006KT 11/10 A3011 RMK A01 T01080095  RH  092%=      5-min Rain = 0
KEA1 230556Z 04007KT 11/10 A3011 RMK A01 T01080095  RH  092%=      5-min Rain = 0
KEA1 230557Z 04009KT 11/10 A3011 RMK A01 T01080095  RH  092%=      5-min Rain = 0
KEA1 230558Z 04009KT 11/10 A3011 RMK A01 T01080095  RH  091%=      5-min Rain = 0
KEA1 230559Z 04010KT 11/10 A3011 RMK A01 T01090095  RH  091%=      5-min Rain = 0
KEA1 230600Z 04010KT 11/10 A3011 RMK A01 T01090095  RH  091%=      5-min Rain = 0
KEA1 230601Z 04010KT 11/09 A3011 RMK A01 T01080094  RH  091%=      5-min Rain = 0
KEA1 230602Z 05010KT 11/10 A3011 RMK A01 T01090095  RH  091%=      5-min Rain = 0
KEA1 230603Z 04009KT 11/10 A3011 RMK A01 T01090095  RH  091%=      5-min Rain = 0
KEA1 230604Z 04011KT 11/10 A3011 RMK A01 T01090095  RH  091%=      5-min Rain = 0
KEA1 230605Z 04011KT 11/10 A301 RMK A01 T01090095  RH  091%=      5-min Rain = 0
KEA1 230606Z 04011KT 11/10 A301 RMK A01 T01090095  RH  091%=      5-min Rain = 0
KEA1 230607Z 04013KT 11/10 A301 RMK A01 T01090095  RH  091%=      5-min Rain = 0
KEA1 230608Z 04010KT 11/10 A301 RMK A01 T01090095  RH  091%=      5-min Rain = 0
KEA1 230609Z 04010KT 11/10 A301 RMK A01 T01090095  RH  091%=      5-min Rain = 0
KEA1 230610Z 04010KT 11/10 A301 RMK A01 T01090095  RH  091%=      5-min Rain = 0
KEA1 230611Z 04011KT 11/10 A301 RMK A01 T01090095  RH  091%=      5-min Rain = 0
KEA1 230612Z 04011KT 11/10 A301 RMK A01 T01090095  RH  091%=      5-min Rain = 0
KEA1 230613Z 04012KT 11/10 A301 RMK A01 T01090095  RH  091%=      5-min Rain = 0
KEA1 230614Z 03011KT 11/10 A301 RMK A01 T01090095  RH  091%=      5-min Rain = 0
KEA1 230615Z 03012KT 11/10 A301 RMK A01 T01090095  RH  091%=      5-min Rain = 0
KEA1 230616Z 04011KT 11/10 A301 RMK A01 T01090095  RH  091%=      5-min Rain = 0
KEA1 230617Z 04015KT 11/10 A301 RMK A01 T01090095  RH  091%=      5-min Rain = 0
KEA1 230618Z 03014KT 11/10 A301 RMK A01 T01090095  RH  091%=      5-min Rain = 0
KEA1 230619Z 03011KT 11/10 A301 RMK A01 T01090095  RH  091%=      5-min Rain = 0
KEA1 230620Z 03012KT 11/10 A301 RMK A01 T01090095  RH  091%=      5-min Rain = 0
KEA1 230621Z 04013KT 11/10 A301 RMK A01 T01090095  RH  091%=      5-min Rain = 0
KEA1 230622Z 03012KT 11/10 A301 RMK A01 T01090095  RH  091%=      5-min Rain = 0
KEA1 230623Z 03012KT 11/10 A301 RMK A01 T01090095  RH  091%=      5-min Rain = 0
KEA1 230624Z 03013KT 11/10 A301 RMK A01 T01090095  RH  091%=      5-min Rain = 0
KEA1 230625Z 03014KT 11/10 A301 RMK A01 T01090095  RH  091%=      5-min Rain = 0
KEA1 230626Z 03013KT 11/09 A301 RMK A01 T01090094  RH  091%=      5-min Rain = 0
KEA1 230627Z 03013KT 11/10 A301 RMK A01 T01090095  RH  091%=      5-min Rain = 0
KEA1 230628Z 04013KT 11/10 A301 RMK A01 T01090095  RH  091%=      5-min Rain = 0
KEA1 230629Z 04011KT 11/10 A301 RMK A01 T01090095  RH  091%=      5-min Rain = 0
KEA1 230630Z 04013G19KT 11/10 A301 RMK A01 T01090095  RH  091%=      5-min Rain = 0
KEA1 230631Z 04014KT 11/10 A301 RMK A01 T01090095  RH  091%=      5-min Rain = 0
KEA1 230632Z 04014KT 11/09 A301 RMK A01 T01090094  RH  091%=      5-min Rain = 0
KEA1 230633Z 03012KT 11/09 A301 RMK A01 T01080094  RH  091%=      5-min Rain = 0
KEA1 230634Z 03012KT 11/10 A3009 RMK A01 T01090095  RH  091%=      5-min Rain = 0
KEA1 230635Z 03013KT 11/10 A3009 RMK A01 T01090095  RH  091%=      5-min Rain = 0
KEA1 230636Z 04012KT 11/10 A3009 RMK A01 T01090095  RH  091%=      5-min Rain = 0
KEA1 230637Z 04012KT 11/10 A3009 RMK A01 T01090095  RH  091%=      5-min Rain = 0
KEA1 230638Z 04012KT 11/10 A3009 RMK A01 T01090095  RH  091%=      5-min Rain = 0
KEA1 230639Z 03014KT 11/10 A3009 RMK A01 T01080095  RH  091%=      5-min Rain = 0
KEA1 230640Z 04014KT 11/10 A3009 RMK A01 T01080095  RH  091%=      5-min Rain = 0
KEA1 230641Z 04013KT 11/10 A3009 RMK A01 T01090095  RH  091%=      5-min Rain = 0
KEA1 230642Z 03016KT 11/09 A3009 RMK A01 T01080094  RH  091%=      5-min Rain = 0
KEA1 230643Z 03017KT 11/10 A3008 RMK A01 T01090095  RH  091%=      5-min Rain = 0
KEA1 230644Z 03016KT 11/09 A3008 RMK A01 T01090094  RH  091%=      5-min Rain = 0
KEA1 230645Z 03015G20KT 11/10 A3008 RMK A01 T01090095  RH  091%=      5-min Rain = 0
KEA1 230646Z 03016KT 11/09 A3008 RMK A01 T01090094  RH  091%=      5-min Rain = 0
KEA1 230647Z 03016KT 11/09 A3008 RMK A01 T01080094  RH  091%=      5-min Rain = 0
KEA1 230648Z 03013KT 11/09 A3008 RMK A01 T01080094  RH  091%=      5-min Rain = 0
KEA1 230649Z 03015KT 11/09 A3008 RMK A01 T01080094  RH  091%=      5-min Rain = 0
KEA1 230650Z 04015KT 11/09 A3008 RMK A01 T01080094  RH  091%=      5-min Rain = 0
KEA1 230651Z 03014KT 11/09 A3008 RMK A01 T01080094  RH  091%=      5-min Rain = 0
KEA1 230652Z 03012KT 11/10 A3008 RMK A01 T01080095  RH  091%=      5-min Rain = 0
KEA1 230653Z 03014KT 11/10 A3008 RMK A01 T01080095  RH  091%=      5-min Rain = 0
KEA1 230654Z 04014KT 11/09 A3008 RMK A01 T01080094  RH  091%=      5-min Rain = 0
KEA1 230655Z 03013KT 11/09 A3008 RMK A01 T01080094  RH  091%=      5-min Rain = 0
KEA1 230656Z 03013KT 11/10 A3008 RMK A01 T01080095  RH  091%=      5-min Rain = 0
KEA1 230657Z 03012KT 11/10 A3008 RMK A01 T01080095  RH  091%=      5-min Rain = 0
KEA1 230658Z 03011KT 11/10 A3008 RMK A01 T01080095  RH  092%=      5-min Rain = 0
KEA1 230659Z 03013KT 11/10 A3008 RMK A01 T01080095  RH  092%=      5-min Rain = 0
KEA1 230700Z 03011KT 11/10 A3008 RMK A01 T01080095  RH  092%=      5-min Rain = 0
KEA1 230701Z 02012KT 11/10 A3008 RMK A01 T01080095  RH  092%=      5-min Rain = 0
KEA1 230702Z 03013KT 11/10 A3008 RMK A01 T01070095  RH  092%=      5-min Rain = 0
KEA1 230703Z 03013KT 11/09 A3008 RMK A01 T01070094  RH  092%=      5-min Rain = 0
KEA1 230704Z 02012KT 11/10 A3008 RMK A01 T01070095  RH  092%=      5-min Rain = 0
KEA1 230705Z 02012KT 11/09 A3008 RMK A01 T01070094  RH  092%=      5-min Rain = 0
KEA1 230706Z 03013KT 11/10 A3008 RMK A01 T01070095  RH  092%=      5-min Rain = 0
KEA1 230707Z 02012KT 11/09 A3008 RMK A01 T01070094  RH  092%=      5-min Rain = 0
KEA1 230708Z 02012KT 11/09 A3008 RMK A01 T01070094  RH  092%=      5-min Rain = 0
KEA1 230709Z 02012KT 11/10 A3008 RMK A01 T01070095  RH  092%=      5-min Rain = 0
KEA1 230710Z 02011KT 11/09 A3008 RMK A01 T01070094  RH  092%=      5-min Rain = 0
KEA1 230711Z 03012KT 11/09 A3008 RMK A01 T01070094  RH  092%=      5-min Rain = 0
KEA1 230712Z 03012KT 11/09 A3008 RMK A01 T01070094  RH  092%=      5-min Rain = 0
KEA1 230713Z 03013KT 11/09 A3008 RMK A01 T01070094  RH  092%=      5-min Rain = 0
KEA1 230714Z 03011KT 11/09 A3008 RMK A01 T01070094  RH  092%=      5-min Rain = 0
KEA1 230715Z 03011KT 11/09 A3008 RMK A01 T01070094  RH  092%=      5-min Rain = 0
KEA1 230716Z 03013KT 11/09 A3008 RMK A01 T01070094  RH  092%=      5-min Rain = 0
KEA1 230717Z 03013KT 11/09 A3008 RMK A01 T01070094  RH  092%=      5-min Rain = 0
KEA1 230718Z 03012KT 11/09 A3008 RMK A01 T01070094  RH  092%=      5-min Rain = 0
KEA1 230719Z 02013KT 11/09 A3008 RMK A01 T01070094  RH  092%=      5-min Rain = 0
KEA1 230720Z 02012KT 11/09 A3008 RMK A01 T01070094  RH  092%=      5-min Rain = 0
KEA1 230721Z 03012KT 11/09 A3008 RMK A01 T01060094  RH  092%=      5-min Rain = 0
KEA1 230722Z 03012KT 11/09 A3008 RMK A01 T01070094  RH  092%=      5-min Rain = 0
KEA1 230723Z 02010KT 11/09 A3008 RMK A01 T01070094  RH  092%=      5-min Rain = 0
KEA1 230724Z 02009KT 11/10 A3008 RMK A01 T01070095  RH  092%=      5-min Rain = 0
KEA1 230725Z 03011KT 11/10 A3008 RMK A01 T01070095  RH  092%=      5-min Rain = 0
KEA1 230726Z 02010KT 11/10 A3008 RMK A01 T01060095  RH  093%=      5-min Rain = 0
KEA1 230727Z 02012KT 11/10 A3007 RMK A01 T01060095  RH  093%=      5-min Rain = 0
KEA1 230728Z 03011KT 11/10 A3007 RMK A01 T01060095  RH  093%=      5-min Rain = 0
KEA1 230729Z 03010KT 11/10 A3007 RMK A01 T01060095  RH  093%=      5-min Rain = 0
KEA1 230730Z 02012KT 11/10 A3007 RMK A01 T01060096  RH  093%=      5-min Rain = 0
KEA1 230731Z 02011KT 11/10 A3007 RMK A01 T01060096  RH  093%=      5-min Rain = 0
KEA1 230732Z 02010KT 11/10 A3007 RMK A01 T01060096  RH  094%=      5-min Rain = 0
KEA1 230733Z 03012KT 11/10 A3007 RMK A01 T01050096  RH  094%=      5-min Rain = 0
KEA1 230734Z 03010KT 11/10 A3007 RMK A01 T01060096  RH  094%=      5-min Rain = 0
KEA1 230735Z 04010KT 11/10 A3008 RMK A01 T01050096  RH  094%=      5-min Rain = 0
KEA1 230736Z 03011KT 11/10 A3007 RMK A01 T01050096  RH  094%=      5-min Rain = 0
KEA1 230737Z 03011KT 11/10 A3007 RMK A01 T01050096  RH  094%=      5-min Rain = 0
KEA1 230738Z 03009KT 11/10 A3008 RMK A01 T01050096  RH  094%=      5-min Rain = 0
KEA1 230739Z 04011KT 11/10 A3008 RMK A01 T01050096  RH  094%=      5-min Rain = 0
KEA1 230740Z 03010KT 11/10 A3008 RMK A01 T01050096  RH  094%=      5-min Rain = 0
KEA1 230741Z 04009KT 11/10 A3008 RMK A01 T01050096  RH  094%=      5-min Rain = 0
KEA1 230742Z 04010KT 11/10 A3008 RMK A01 T01060097  RH  094%=      5-min Rain = 0
KEA1 230743Z 04010KT 11/10 A3008 RMK A01 T01060096  RH  094%=      5-min Rain = 0
KEA1 230744Z 04009KT 11/10 A3008 RMK A01 T01060097  RH  094%=      5-min Rain = 0
KEA1 230745Z 04008KT 11/10 A3008 RMK A01 T01060097  RH  094%=      5-min Rain = 0
KEA1 230746Z 04009KT 11/10 A3008 RMK A01 T01060097  RH  094%=      5-min Rain = 0
KEA1 230747Z 04007KT 11/10 A3008 RMK A01 T01060096  RH  094%=      5-min Rain = 0
KEA1 230748Z 04007KT 11/10 A3009 RMK A01 T01060097  RH  094%=      5-min Rain = 0
KEA1 230749Z 04005KT 11/10 A3009 RMK A01 T01070097  RH  094%=      5-min Rain = 0
KEA1 230750Z 05007KT 11/10 A3009 RMK A01 T01070097  RH  094%=      5-min Rain = 0
KEA1 230751Z 04005KT 11/10 A3009 RMK A01 T01070097  RH  094%=      5-min Rain = 0
KEA1 230752Z 05004KT 11/10 A3009 RMK A01 T01070097  RH  094%=      5-min Rain = 0
KEA1 230753Z 04005KT 11/10 A3009 RMK A01 T01070097  RH  094%=      5-min Rain = 0
KEA1 230754Z 05005KT 11/10 A301 RMK A01 T01070097  RH  094%=      5-min Rain = 0
KEA1 230755Z 06003KT 11/10 A301 RMK A01 T01070097  RH  094%=      5-min Rain = 0
KEA1 230756Z 04004KT 11/10 A301 RMK A01 T01070098  RH  094%=      5-min Rain = 0
KEA1 230757Z 04004KT 11/10 A301 RMK A01 T01070097  RH  094%=      5-min Rain = 0.01
KEA1 230758Z 05005KT 11/10 A301 RMK A01 T01070097  RH  094%=      5-min Rain = 0
KEA1 230759Z 05002KT 11/10 A301 RMK A01 T01070098  RH  094%=      5-min Rain = 0
KEA1 230800Z 05004KT 11/10 A301 RMK A01 T01070097  RH  094%=      5-min Rain = 0
KEA1 230801Z 08003KT 11/10 A301 RMK A01 T01070098  RH  094%=      5-min Rain = 0
KEA1 230802Z 06002KT 11/10 A301 RMK A01 T01070098  RH  094%=      5-min Rain = 0
KEA1 230803Z 07002KT 11/10 A3011 RMK A01 T01070098  RH  094%=      5-min Rain = 0
KEA1 230804Z 06002KT 11/10 A3011 RMK A01 T01070098  RH  094%=      5-min Rain = 0
KEA1 230805Z 05002KT 11/10 A3011 RMK A01 T01070098  RH  094%=      5-min Rain = 0.01
KEA1 230806Z 07001KT 11/10 A3011 RMK A01 T01070098  RH  094%=      5-min Rain = 0
KEA1 230807Z 03001KT 11/10 A3011 RMK A01 T01070098  RH  094%=      5-min Rain = 0
KEA1 230808Z 01002KT 11/10 A301 RMK A01 T01070099  RH  094%=      5-min Rain = 0.01
KEA1 230809Z 01003KT 11/10 A301 RMK A01 T01070099  RH  094%=      5-min Rain = 0.01
KEA1 230810Z 02002KT 11/10 A301 RMK A01 T01070099  RH  094%=      5-min Rain = 0.01
KEA1 230811Z 03001KT 11/10 A301 RMK A01 T01070099  RH  095%=      5-min Rain = 0
KEA1 230812Z 34001KT 11/10 A301 RMK A01 T01070098  RH  095%=      5-min Rain = 0.01
KEA1 230813Z 34002KT 11/10 A301 RMK A01 T01070099  RH  095%=      5-min Rain = 0.01
KEA1 230814Z 36003KT 11/10 A301 RMK A01 T01070099  RH  095%=      5-min Rain = 0.01
KEA1 230815Z 36003KT 11/10 A301 RMK A01 T01070099  RH  095%=      5-min Rain = 0
KEA1 230816Z 34003KT 11/10 A301 RMK A01 T01070099  RH  095%=      5-min Rain = 0.01
KEA1 230817Z 34003KT 11/10 A301 RMK A01 T01060099  RH  095%=      5-min Rain = 0.01
KEA1 230818Z 33003KT 11/10 A301 RMK A01 T01060099  RH  095%=      5-min Rain = 0
KEA1 230819Z 33003KT 11/10 A301 RMK A01 T01060099  RH  095%=      5-min Rain = 0.01
KEA1 230820Z 34003KT 11/10 A301 RMK A01 T01060099  RH  095%=      5-min Rain = 0
KEA1 230821Z 34004KT 11/10 A301 RMK A01 T01060099  RH  096%=      5-min Rain = 0.01
KEA1 230822Z 34004KT 11/10 A301 RMK A01 T01060100  RH  096%=      5-min Rain = 0.01
KEA1 230823Z 34004KT 11/10 A301 RMK A01 T01060100  RH  096%=      5-min Rain = 0
KEA1 230824Z 35005KT 11/10 A301 RMK A01 T01060100  RH  096%=      5-min Rain = 0.01
KEA1 230825Z 35006KT 11/10 A3009 RMK A01 T01060100  RH  096%=      5-min Rain = 0
KEA1 230826Z 35006KT 11/10 A3009 RMK A01 T01050099  RH  096%=      5-min Rain = 0.01
KEA1 230827Z 00006KT 11/10 A3009 RMK A01 T01060100  RH  096%=      5-min Rain = 0.01
KEA1 230828Z 36006KT 11/10 A3009 RMK A01 T01050099  RH  096%=      5-min Rain = 0
KEA1 230829Z 35005KT 11/10 A3009 RMK A01 T01050100  RH  096%=      5-min Rain = 0.01
KEA1 230830Z 35005KT 11/10 A3009 RMK A01 T01050099  RH  096%=      5-min Rain = 0
KEA1 230831Z 35006KT 11/10 A3009 RMK A01 T01050100  RH  096%=      5-min Rain = 0.01
KEA1 230832Z 35005KT 11/10 A3009 RMK A01 T01050099  RH  096%=      5-min Rain = 0.01
KEA1 230833Z 35005KT 11/10 A3009 RMK A01 T01050099  RH  097%=      5-min Rain = 0
KEA1 230834Z 34004KT 11/10 A3009 RMK A01 T01050100  RH  097%=      5-min Rain = 0.01
KEA1 230835Z 34005KT 11/10 A3009 RMK A01 T01050100  RH  097%=      5-min Rain = 0.01
KEA1 230836Z 34005KT 11/10 A3009 RMK A01 T01050100  RH  097%=      5-min Rain = 0
KEA1 230837Z 34005KT 11/10 A3009 RMK A01 T01050100  RH  097%=      5-min Rain = 0.01
KEA1 230838Z 33006KT 10/10 A3009 RMK A01 T01040099  RH  097%=      5-min Rain = 0
KEA1 230839Z 33005KT 11/10 A3009 RMK A01 T01050100  RH  097%=      5-min Rain = 0.01
KEA1 230840Z 33005KT 11/10 A3009 RMK A01 T01050100  RH  097%=      5-min Rain = 0
KEA1 230841Z 33005KT 11/10 A3009 RMK A01 T01050100  RH  097%=      5-min Rain = 0.01
KEA1 230842Z 33005KT 10/10 A3009 RMK A01 T01040100  RH  097%=      5-min Rain = 0
KEA1 230843Z 32005KT 10/10 A3009 RMK A01 T01040100  RH  097%=      5-min Rain = 0
KEA1 230844Z 32005KT 10/10 A3009 RMK A01 T01040100  RH  097%=      5-min Rain = 0.01
KEA1 230845Z 32005KT 11/10 A3009 RMK A01 T01050100  RH  097%=      5-min Rain = 0
KEA1 230846Z 32005KT 11/10 A3009 RMK A01 T01050100  RH  097%=      5-min Rain = 0.01
KEA1 230847Z 32005KT 11/10 A3009 RMK A01 T01050100  RH  097%=      5-min Rain = 0
KEA1 230848Z 31005KT 11/10 A3009 RMK A01 T01050100  RH  097%=      5-min Rain = 0.01
KEA1 230849Z 31005KT 10/10 A3009 RMK A01 T01040100  RH  097%=      5-min Rain = 0
KEA1 230850Z 31005KT 11/10 A3009 RMK A01 T01050100  RH  097%=      5-min Rain = 0.01
KEA1 230851Z 31005KT 11/10 A3009 RMK A01 T01050100  RH  097%=      5-min Rain = 0
KEA1 230852Z 31005KT 11/10 A3009 RMK A01 T01050100  RH  097%=      5-min Rain = 0
KEA1 230853Z 31005KT 10/10 A3009 RMK A01 T01040100  RH  097%=      5-min Rain = 0.01
KEA1 230854Z 31006KT 11/10 A3009 RMK A01 T01050100  RH  097%=      5-min Rain = 0
KEA1 230855Z 31005KT 11/10 A3009 RMK A01 T01050100  RH  097%=      5-min Rain = 0.01
KEA1 230856Z 31005KT 10/10 A301 RMK A01 T01040100  RH  097%=      5-min Rain = 0
KEA1 230857Z 31006KT 10/10 A301 RMK A01 T01040100  RH  097%=      5-min Rain = 0.01
KEA1 230858Z 31006KT 11/10 A301 RMK A01 T01050101  RH  097%=      5-min Rain = 0
KEA1 230859Z 31005KT 10/10 A301 RMK A01 T01040100  RH  097%=      5-min Rain = 0
KEA1 230900Z 31006KT 11/10 A301 RMK A01 T01050101  RH  097%=      5-min Rain = 0.01
KEA1 230901Z 30005KT 11/10 A301 RMK A01 T01050101  RH  097%=      5-min Rain = 0
KEA1 230902Z 30005KT 11/10 A301 RMK A01 T01050101  RH  097%=      5-min Rain = 0.01
KEA1 230903Z 29005KT 11/10 A301 RMK A01 T01050101  RH  097%=      5-min Rain = 0
KEA1 230904Z 29005KT 11/10 A301 RMK A01 T01050101  RH  097%=      5-min Rain = 0
KEA1 230905Z 30006KT 11/10 A301 RMK A01 T01050101  RH  097%=      5-min Rain = 0.01
KEA1 230906Z 30006KT 11/10 A301 RMK A01 T01050101  RH  097%=      5-min Rain = 0
KEA1 230907Z 29005KT 11/10 A301 RMK A01 T01060102  RH  097%=      5-min Rain = 0
KEA1 230908Z 29005KT 11/10 A301 RMK A01 T01050101  RH  097%=      5-min Rain = 0.01
KEA1 230909Z 30006KT 11/10 A301 RMK A01 T01060102  RH  097%=      5-min Rain = 0
KEA1 230910Z 30005KT 11/10 A301 RMK A01 T01060102  RH  097%=      5-min Rain = 0.01
KEA1 230911Z 29005KT 11/10 A301 RMK A01 T01060102  RH  097%=      5-min Rain = 0
KEA1 230912Z 30006KT 11/10 A301 RMK A01 T01060102  RH  097%=      5-min Rain = 0.01
KEA1 230913Z 29006KT 11/10 A301 RMK A01 T01060102  RH  097%=      5-min Rain = 0
KEA1 230914Z 29006KT 11/10 A301 RMK A01 T01060102  RH  097%=      5-min Rain = 0
KEA1 230915Z 29007KT 11/10 A301 RMK A01 T01060102  RH  097%=      5-min Rain = 0.01
KEA1 230916Z 29006KT 11/10 A301 RMK A01 T01060102  RH  097%=      5-min Rain = 0
KEA1 230917Z 30007KT 11/10 A301 RMK A01 T01060102  RH  097%=      5-min Rain = 0.01
KEA1 230918Z 30008KT 11/10 A301 RMK A01 T01060102  RH  097%=      5-min Rain = 0
KEA1 230919Z 29007KT 11/10 A301 RMK A01 T01060102  RH  097%=      5-min Rain = 0
KEA1 230920Z 29006KT 11/10 A301 RMK A01 T01060102  RH  097%=      5-min Rain = 0.01
KEA1 230921Z 29007KT 11/10 A301 RMK A01 T01060102  RH  097%=      5-min Rain = 0
KEA1 230922Z 29007KT 11/10 A301 RMK A01 T01060102  RH  097%=      5-min Rain = 0
KEA1 230923Z 28008KT 11/10 A301 RMK A01 T01060102  RH  097%=      5-min Rain = 0.01
KEA1 230924Z 29008KT 11/10 A301 RMK A01 T01060102  RH  097%=      5-min Rain = 0
KEA1 230925Z 29007KT 11/10 A301 RMK A01 T01060102  RH  097%=      5-min Rain = 0
KEA1 230926Z 29007KT 11/10 A301 RMK A01 T01060102  RH  097%=      5-min Rain = 0
KEA1 230927Z 30005KT 11/10 A301 RMK A01 T01060102  RH  097%=      5-min Rain = 0.01
KEA1 230928Z 30006KT 11/10 A301 RMK A01 T01060102  RH  097%=      5-min Rain = 0
KEA1 230929Z 30005KT 11/10 A301 RMK A01 T01070103  RH  097%=      5-min Rain = 0
KEA1 230930Z 31004KT 11/10 A301 RMK A01 T01060102  RH  097%=      5-min Rain = 0.01
KEA1 230931Z 30004KT 11/10 A301 RMK A01 T01060102  RH  097%=      5-min Rain = 0
KEA1 230932Z 30005KT 11/10 A301 RMK A01 T01060102  RH  097%=      5-min Rain = 0.01
KEA1 230933Z 32004KT 11/10 A3009 RMK A01 T01060102  RH  097%=      5-min Rain = 0
KEA1 230934Z 33004KT 11/10 A3009 RMK A01 T01060102  RH  097%=      5-min Rain = 0
KEA1 230935Z 33005KT 11/10 A3009 RMK A01 T01060102  RH  097%=      5-min Rain = 0.01
KEA1 230936Z 34005KT 11/10 A3009 RMK A01 T01060102  RH  097%=      5-min Rain = 0
KEA1 230937Z 36006KT 11/10 A3009 RMK A01 T01060102  RH  097%=      5-min Rain = 0.01
KEA1 230938Z 00006KT 11/10 A3009 RMK A01 T01060102  RH  097%=      5-min Rain = 0
KEA1 230939Z 01007KT 11/10 A3009 RMK A01 T01060102  RH  097%=      5-min Rain = 0.01
KEA1 230940Z 01007KT 11/10 A3009 RMK A01 T01060102  RH  097%=      5-min Rain = 0
KEA1 230941Z 01008KT 11/10 A3009 RMK A01 T01060102  RH  097%=      5-min Rain = 0.01
KEA1 230942Z 00009KT 11/10 A3008 RMK A01 T01060102  RH  097%=      5-min Rain = 0
KEA1 230943Z 36010KT 11/10 A3008 RMK A01 T01060102  RH  097%=      5-min Rain = 0.01
KEA1 230944Z 35010KT 11/10 A3008 RMK A01 T01050102  RH  097%=      5-min Rain = 0
KEA1 230945Z 35009KT 11/10 A3009 RMK A01 T01050102  RH  097%=      5-min Rain = 0
KEA1 230946Z 35010KT 11/10 A3009 RMK A01 T01050102  RH  097%=      5-min Rain = 0
KEA1 230947Z 35010KT 11/10 A3009 RMK A01 T01060102  RH  097%=      5-min Rain = 0.01
KEA1 230948Z 35011KT 11/10 A3009 RMK A01 T01060102  RH  098%=      5-min Rain = 0
KEA1 230949Z 34010KT 11/10 A3009 RMK A01 T01050101  RH  097%=      5-min Rain = 0
KEA1 230950Z 34009KT 11/10 A3009 RMK A01 T01050101  RH  097%=      5-min Rain = 0
KEA1 230951Z 34010KT 11/10 A3009 RMK A01 T01050101  RH  097%=      5-min Rain = 0
KEA1 230952Z 34010KT 11/10 A3009 RMK A01 T01050101  RH  097%=      5-min Rain = 0.01
KEA1 230953Z 34011KT 10/10 A3009 RMK A01 T01040100  RH  097%=      5-min Rain = 0
KEA1 230954Z 35010KT 10/10 A3009 RMK A01 T01040101  RH  097%=      5-min Rain = 0
KEA1 230955Z 34010KT 10/10 A3008 RMK A01 T01040101  RH  097%=      5-min Rain = 0
KEA1 230956Z 35010KT 10/10 A3008 RMK A01 T01040100  RH  097%=      5-min Rain = 0
KEA1 230957Z 35009KT 10/10 A3008 RMK A01 T01040100  RH  097%=      5-min Rain = 0
KEA1 230958Z 35011KT 10/10 A3008 RMK A01 T01040100  RH  097%=      5-min Rain = 0
KEA1 230959Z 35011KT 10/10 A3008 RMK A01 T01040100  RH  097%=      5-min Rain = 0
KEA1 231000Z 35010KT 10/10 A3008 RMK A01 T01040100  RH  097%=      5-min Rain = 0
KEA1 231001Z 35009KT 10/10 A3008 RMK A01 T01040100  RH  097%=      5-min Rain = 0
KEA1 231002Z 35010KT 10/10 A3008 RMK A01 T01040100  RH  097%=      5-min Rain = 0.01
KEA1 231003Z 35011KT 10/10 A3008 RMK A01 T01040100  RH  097%=      5-min Rain = 0
KEA1 231004Z 34009KT 10/10 A3008 RMK A01 T01040100  RH  097%=      5-min Rain = 0
KEA1 231005Z 35009KT 10/10 A3008 RMK A01 T01040100  RH  097%=      5-min Rain = 0
KEA1 231006Z 35010KT 10/10 A3008 RMK A01 T01040100  RH  097%=      5-min Rain = 0
KEA1 231007Z 35010KT 10/10 A3008 RMK A01 T01040100  RH  097%=      5-min Rain = 0
KEA1 231008Z 35010KT 10/10 A3008 RMK A01 T01040100  RH  097%=      5-min Rain = 0
KEA1 231009Z 35010KT 10/10 A3008 RMK A01 T01040100  RH  097%=      5-min Rain = 0
KEA1 231010Z 35012KT 10/10 A3008 RMK A01 T01040100  RH  097%=      5-min Rain = 0
KEA1 231011Z 35011KT 10/10 A3008 RMK A01 T01040100  RH  097%=      5-min Rain = 0
KEA1 231012Z 35012KT 10/10 A3008 RMK A01 T01040100  RH  097%=      5-min Rain = 0
KEA1 231013Z 35012KT 10/10 A3008 RMK A01 T01040100  RH  097%=      5-min Rain = 0
KEA1 231014Z 35011KT 10/10 A3008 RMK A01 T01040100  RH  097%=      5-min Rain = 0
KEA1 231015Z 35010KT 10/10 A3008 RMK A01 T01040100  RH  097%=      5-min Rain = 0.01
KEA1 231016Z 35011KT 10/10 A3008 RMK A01 T01040099  RH  097%=      5-min Rain = 0
KEA1 231017Z 34012KT 10/10 A3008 RMK A01 T01040099  RH  097%=      5-min Rain = 0
KEA1 231018Z 35010KT 10/10 A3008 RMK A01 T01030099  RH  097%=      5-min Rain = 0
KEA1 231019Z 34010KT 10/10 A3008 RMK A01 T01040099  RH  097%=      5-min Rain = 0
KEA1 231020Z 34011KT 10/10 A3008 RMK A01 T01040099  RH  097%=      5-min Rain = 0
KEA1 231021Z 34010KT 10/10 A3008 RMK A01 T01030099  RH  097%=      5-min Rain = 0
KEA1 231022Z 34010KT 10/10 A3008 RMK A01 T01040099  RH  097%=      5-min Rain = 0
KEA1 231023Z 34010KT 10/10 A3008 RMK A01 T01040099  RH  097%=      5-min Rain = 0
KEA1 231024Z 34012KT 10/10 A3008 RMK A01 T01040099  RH  097%=      5-min Rain = 0
KEA1 231025Z 34011KT 10/10 A3008 RMK A01 T01040099  RH  097%=      5-min Rain = 0
KEA1 231026Z 35010KT 10/10 A3008 RMK A01 T01040099  RH  097%=      5-min Rain = 0
KEA1 231027Z 34012KT 10/10 A3008 RMK A01 T01040098  RH  097%=      5-min Rain = 0
KEA1 231028Z 34011KT 10/10 A3008 RMK A01 T01040098  RH  097%=      5-min Rain = 0
KEA1 231029Z 35012KT 10/10 A3007 RMK A01 T01040098  RH  097%=      5-min Rain = 0
KEA1 231030Z 35012KT 10/10 A3007 RMK A01 T01030098  RH  096%=      5-min Rain = 0
KEA1 231031Z 35012KT 10/10 A3007 RMK A01 T01030098  RH  096%=      5-min Rain = 0
KEA1 231032Z 34012KT 10/10 A3007 RMK A01 T01030098  RH  096%=      5-min Rain = 0
KEA1 231033Z 34014KT 10/10 A3007 RMK A01 T01030098  RH  096%=      5-min Rain = 0
KEA1 231034Z 35013KT 10/10 A3007 RMK A01 T01030097  RH  096%=      5-min Rain = 0
KEA1 231035Z 34012KT 10/10 A3007 RMK A01 T01030097  RH  096%=      5-min Rain = 0
KEA1 231036Z 35011KT 10/10 A3007 RMK A01 T01030097  RH  096%=      5-min Rain = 0
KEA1 231037Z 34010KT 10/10 A3007 RMK A01 T01020096  RH  096%=      5-min Rain = 0
KEA1 231038Z 34012KT 10/10 A3007 RMK A01 T01020096  RH  096%=      5-min Rain = 0
KEA1 231039Z 34011KT 10/10 A3007 RMK A01 T01020096  RH  096%=      5-min Rain = 0
KEA1 231040Z 34011KT 10/10 A3007 RMK A01 T01020096  RH  096%=      5-min Rain = 0
KEA1 231041Z 34010KT 10/10 A3007 RMK A01 T01020096  RH  096%=      5-min Rain = 0
KEA1 231042Z 34010KT 10/10 A3007 RMK A01 T01020096  RH  096%=      5-min Rain = 0
KEA1 231043Z 34011KT 10/10 A3008 RMK A01 T01020096  RH  096%=      5-min Rain = 0
KEA1 231044Z 34011KT 10/10 A3008 RMK A01 T01020096  RH  096%=      5-min Rain = 0
KEA1 231045Z 34011KT 10/10 A3008 RMK A01 T01020096  RH  096%=      5-min Rain = 0
KEA1 231046Z 34010KT 10/10 A3008 RMK A01 T01030097  RH  096%=      5-min Rain = 0
KEA1 231047Z 33010KT 10/10 A3008 RMK A01 T01020096  RH  096%=      5-min Rain = 0
KEA1 231048Z 33011KT 10/10 A3008 RMK A01 T01020096  RH  096%=      5-min Rain = 0
KEA1 231049Z 33011KT 10/10 A3008 RMK A01 T01020096  RH  096%=      5-min Rain = 0
KEA1 231050Z 34011KT 10/10 A3008 RMK A01 T01020096  RH  096%=      5-min Rain = 0
KEA1 231051Z 34011KT 10/10 A3008 RMK A01 T01020096  RH  096%=      5-min Rain = 0
KEA1 231052Z 33011KT 10/10 A3008 RMK A01 T01020096  RH  096%=      5-min Rain = 0
KEA1 231053Z 33010KT 10/10 A3008 RMK A01 T01020096  RH  096%=      5-min Rain = 0
KEA1 231054Z 34010KT 10/10 A3008 RMK A01 T01020096  RH  096%=      5-min Rain = 0
KEA1 231055Z 34012KT 10/10 A3008 RMK A01 T01020096  RH  096%=      5-min Rain = 0
KEA1 231056Z 34010KT 10/10 A3008 RMK A01 T01020096  RH  096%=      5-min Rain = 0
KEA1 231057Z 34011KT 10/10 A3008 RMK A01 T01020096  RH  096%=      5-min Rain = 0
KEA1 231058Z 34011KT 10/10 A3008 RMK A01 T01020096  RH  096%=      5-min Rain = 0
KEA1 231059Z 34011KT 10/10 A3008 RMK A01 T01020095  RH  096%=      5-min Rain = 0
KEA1 231100Z 34012KT 10/10 A3008 RMK A01 T01020096  RH  096%=      5-min Rain = 0
KEA1 231101Z 34011KT 10/10 A3008 RMK A01 T01020096  RH  096%=      5-min Rain = 0
KEA1 231102Z 34010KT 10/10 A3008 RMK A01 T01020095  RH  096%=      5-min Rain = 0
KEA1 231103Z 34011KT 10/10 A3008 RMK A01 T01020095  RH  096%=      5-min Rain = 0
KEA1 231104Z 34010KT 10/10 A3008 RMK A01 T01020095  RH  096%=      5-min Rain = 0
KEA1 231105Z 34011KT 10/10 A3008 RMK A01 T01020095  RH  096%=      5-min Rain = 0
KEA1 231106Z 34012KT 10/10 A3008 RMK A01 T01020095  RH  096%=      5-min Rain = 0
KEA1 231107Z 34014KT 10/10 A3008 RMK A01 T01020095  RH  096%=      5-min Rain = 0
KEA1 231108Z 34010KT 10/10 A3008 RMK A01 T01010095  RH  096%=      5-min Rain = 0
KEA1 231109Z 34010KT 10/10 A3008 RMK A01 T01020095  RH  095%=      5-min Rain = 0
KEA1 231110Z 35011KT 10/10 A3008 RMK A01 T01020095  RH  095%=      5-min Rain = 0
KEA1 231111Z 34010KT 10/10 A3008 RMK A01 T01020095  RH  096%=      5-min Rain = 0
KEA1 231112Z 35009KT 10/10 A3008 RMK A01 T01020095  RH  096%=      5-min Rain = 0
KEA1 231113Z 34012KT 10/10 A3008 RMK A01 T01020095  RH  096%=      5-min Rain = 0
KEA1 231114Z 34011KT 10/10 A3008 RMK A01 T01020095  RH  096%=      5-min Rain = 0
KEA1 231115Z 35009KT 10/10 A3008 RMK A01 T01020095  RH  096%=      5-min Rain = 0
KEA1 231116Z 35009KT 10/10 A3009 RMK A01 T01020095  RH  096%=      5-min Rain = 0
KEA1 231117Z 35009KT 10/10 A3009 RMK A01 T01020095  RH  096%=      5-min Rain = 0
KEA1 231118Z 35011KT 10/10 A3009 RMK A01 T01020095  RH  096%=      5-min Rain = 0
KEA1 231119Z 35011KT 10/10 A3009 RMK A01 T01020095  RH  096%=      5-min Rain = 0
KEA1 231120Z 34009KT 10/10 A3009 RMK A01 T01020095  RH  096%=      5-min Rain = 0
KEA1 231121Z 34010KT 10/10 A3009 RMK A01 T01020095  RH  095%=      5-min Rain = 0
KEA1 231122Z 34010KT 10/10 A3009 RMK A01 T01020095  RH  095%=      5-min Rain = 0
KEA1 231123Z 34012KT 10/10 A3009 RMK A01 T01020095  RH  095%=      5-min Rain = 0
KEA1 231124Z 34010KT 10/10 A3009 RMK A01 T01020095  RH  095%=      5-min Rain = 0
KEA1 231125Z 34008KT 10/10 A3009 RMK A01 T01020095  RH  095%=      5-min Rain = 0
KEA1 231126Z 35008KT 10/10 A3009 RMK A01 T01020095  RH  095%=      5-min Rain = 0
KEA1 231127Z 34008KT 10/10 A3009 RMK A01 T01020095  RH  095%=      5-min Rain = 0
KEA1 231128Z 34011KT 10/10 A3009 RMK A01 T01020095  RH  095%=      5-min Rain = 0
KEA1 231129Z 34010KT 10/10 A3009 RMK A01 T01020095  RH  095%=      5-min Rain = 0
KEA1 231130Z 35010KT 10/10 A3009 RMK A01 T01020095  RH  095%=      5-min Rain = 0
KEA1 231131Z 35010KT 10/10 A3009 RMK A01 T01020095  RH  095%=      5-min Rain = 0
KEA1 231132Z 35011KT 10/10 A3009 RMK A01 T01020095  RH  095%=      5-min Rain = 0
KEA1 231133Z 36010KT 10/10 A3009 RMK A01 T01020095  RH  095%=      5-min Rain = 0
KEA1 231134Z 35011KT 10/10 A3009 RMK A01 T01020095  RH  095%=      5-min Rain = 0
KEA1 231135Z 35012KT 10/10 A3009 RMK A01 T01020095  RH  095%=      5-min Rain = 0
KEA1 231136Z 35012KT 10/10 A3009 RMK A01 T01030095  RH  095%=      5-min Rain = 0
KEA1 231137Z 35010KT 10/10 A3009 RMK A01 T01030095  RH  095%=      5-min Rain = 0
KEA1 231138Z 35010KT 10/10 A3009 RMK A01 T01030095  RH  095%=      5-min Rain = 0
KEA1 231139Z 35009KT 10/10 A3009 RMK A01 T01030095  RH  095%=      5-min Rain = 0
KEA1 231140Z 36009KT 10/10 A3009 RMK A01 T01020095  RH  095%=      5-min Rain = 0
KEA1 231141Z 36010KT 10/10 A3009 RMK A01 T01030095  RH  095%=      5-min Rain = 0
KEA1 231142Z 36010KT 10/10 A3009 RMK A01 T01030095  RH  095%=      5-min Rain = 0
KEA1 231143Z 36010KT 10/10 A301 RMK A01 T01030095  RH  095%=      5-min Rain = 0
KEA1 231144Z 00009KT 10/10 A301 RMK A01 T01030095  RH  095%=      5-min Rain = 0
KEA1 231145Z 36010KT 10/10 A301 RMK A01 T01030095  RH  095%=      5-min Rain = 0
KEA1 231146Z 35010KT 10/10 A301 RMK A01 T01030095  RH  095%=      5-min Rain = 0
KEA1 231147Z 36009KT 10/10 A301 RMK A01 T01030095  RH  095%=      5-min Rain = 0
KEA1 231148Z 00009KT 10/10 A301 RMK A01 T01020095  RH  095%=      5-min Rain = 0
KEA1 231149Z 00009KT 10/10 A301 RMK A01 T01030095  RH  095%=      5-min Rain = 0
KEA1 231150Z 00010KT 10/10 A301 RMK A01 T01030095  RH  095%=      5-min Rain = 0
KEA1 231151Z 01010KT 10/10 A301 RMK A01 T01030095  RH  095%=      5-min Rain = 0
KEA1 231152Z 00011KT 10/10 A301 RMK A01 T01020095  RH  095%=      5-min Rain = 0
KEA1 231153Z 01009KT 10/10 A301 RMK A01 T01020095  RH  095%=      5-min Rain = 0
KEA1 231154Z 01010KT 10/10 A301 RMK A01 T01030096  RH  095%=      5-min Rain = 0
KEA1 231155Z 01010KT 10/10 A301 RMK A01 T01030096  RH  095%=      5-min Rain = 0
KEA1 231156Z 01011KT 10/10 A301 RMK A01 T01030096  RH  095%=      5-min Rain = 0
KEA1 231157Z 00010KT 10/10 A301 RMK A01 T01030096  RH  095%=      5-min Rain = 0
KEA1 231158Z 00011KT 10/10 A3009 RMK A01 T01030096  RH  095%=      5-min Rain = 0
KEA1 231159Z 00010KT 10/10 A3009 RMK A01 T01030096  RH  095%=      5-min Rain = 0
KEA1 231200Z 01011KT 10/10 A3009 RMK A01 T01030096  RH  095%=      5-min Rain = 0
KEA1 231201Z 01011KT 10/10 A3009 RMK A01 T01030096  RH  095%=      5-min Rain = 0
KEA1 231202Z 01010KT 10/10 A3009 RMK A01 T01030095  RH  095%=      5-min Rain = 0
KEA1 231203Z 01012KT 10/10 A3009 RMK A01 T01030095  RH  095%=      5-min Rain = 0
KEA1 231204Z 01012KT 10/10 A3009 RMK A01 T01030095  RH  095%=      5-min Rain = 0
KEA1 231205Z 01011KT 10/10 A3009 RMK A01 T01030096  RH  095%=      5-min Rain = 0
KEA1 231206Z 01011KT 10/10 A3009 RMK A01 T01030096  RH  095%=      5-min Rain = 0
KEA1 231207Z 00011KT 10/10 A3009 RMK A01 T01030096  RH  095%=      5-min Rain = 0
KEA1 231208Z 00011KT 10/10 A3009 RMK A01 T01020096  RH  096%=      5-min Rain = 0
KEA1 231209Z 00011KT 10/10 A3009 RMK A01 T01020095  RH  096%=      5-min Rain = 0
KEA1 231210Z 00012KT 10/10 A3009 RMK A01 T01020095  RH  096%=      5-min Rain = 0
KEA1 231211Z 00012KT 10/10 A3009 RMK A01 T01020095  RH  096%=      5-min Rain = 0
KEA1 231212Z 00013KT 10/10 A3009 RMK A01 T01020096  RH  096%=      5-min Rain = 0
KEA1 231213Z 00014KT 10/10 A3008 RMK A01 T01020096  RH  096%=      5-min Rain = 0
KEA1 231214Z 01013KT 10/10 A3008 RMK A01 T01020096  RH  096%=      5-min Rain = 0
KEA1 231215Z 01013KT 10/10 A3008 RMK A01 T01020096  RH  096%=      5-min Rain = 0
KEA1 231216Z 00013KT 10/10 A3008 RMK A01 T01020096  RH  096%=      5-min Rain = 0
KEA1 231217Z 00014KT 10/10 A3008 RMK A01 T01020095  RH  096%=      5-min Rain = 0
KEA1 231218Z 00014KT 10/10 A3008 RMK A01 T01020096  RH  096%=      5-min Rain = 0
KEA1 231219Z 00012KT 10/10 A3008 RMK A01 T01020096  RH  096%=      5-min Rain = 0
KEA1 231220Z 01012KT 10/10 A3008 RMK A01 T01020095  RH  096%=      5-min Rain = 0
KEA1 231221Z 01015KT 10/10 A3008 RMK A01 T01010095  RH  096%=      5-min Rain = 0
KEA1 231222Z 01015KT 10/10 A3008 RMK A01 T01020095  RH  096%=      5-min Rain = 0
KEA1 231223Z 01016KT 10/10 A3007 RMK A01 T01020095  RH  096%=      5-min Rain = 0
KEA1 231224Z 01017KT 10/10 A3007 RMK A01 T01020095  RH  096%=      5-min Rain = 0
KEA1 231225Z 02016KT 10/10 A3007 RMK A01 T01020096  RH  096%=      5-min Rain = 0
KEA1 231226Z 02018KT 10/10 A3007 RMK A01 T01020096  RH  096%=      5-min Rain = 0
KEA1 231227Z 02016KT 10/10 A3007 RMK A01 T01020096  RH  096%=      5-min Rain = 0
KEA1 231228Z 02016KT 10/10 A3007 RMK A01 T01020096  RH  096%=      5-min Rain = 0
KEA1 231229Z 02015KT 10/10 A3007 RMK A01 T01030096  RH  096%=      5-min Rain = 0
KEA1 231230Z 02014KT 10/10 A3007 RMK A01 T01030096  RH  095%=      5-min Rain = 0
KEA1 231231Z 02014KT 10/10 A3007 RMK A01 T01030096  RH  095%=      5-min Rain = 0
KEA1 231232Z 02014KT 10/10 A3007 RMK A01 T01030096  RH  095%=      5-min Rain = 0
KEA1 231233Z 02013KT 10/10 A3007 RMK A01 T01030096  RH  095%=      5-min Rain = 0
KEA1 231234Z 02014KT 10/10 A3007 RMK A01 T01030096  RH  095%=      5-min Rain = 0
KEA1 231235Z 02012KT 10/10 A3007 RMK A01 T01030096  RH  095%=      5-min Rain = 0
KEA1 231236Z 02012KT 10/10 A3007 RMK A01 T01030096  RH  095%=      5-min Rain = 0
KEA1 231237Z 02011KT 10/10 A3007 RMK A01 T01030096  RH  095%=      5-min Rain = 0
KEA1 231238Z 02012KT 10/10 A3007 RMK A01 T01040097  RH  095%=      5-min Rain = 0
KEA1 231239Z 02012KT 10/10 A3008 RMK A01 T01030097  RH  095%=      5-min Rain = 0
KEA1 231240Z 02012KT 10/10 A3008 RMK A01 T01040097  RH  095%=      5-min Rain = 0
KEA1 231241Z 02013KT 10/10 A3008 RMK A01 T01040097  RH  095%=      5-min Rain = 0
KEA1 231242Z 02012KT 10/10 A3008 RMK A01 T01040097  RH  095%=      5-min Rain = 0
KEA1 231243Z 02015KT 10/10 A3008 RMK A01 T01040097  RH  095%=      5-min Rain = 0
KEA1 231244Z 02014KT 10/10 A3008 RMK A01 T01040097  RH  095%=      5-min Rain = 0
KEA1 231245Z 02013KT 10/10 A3008 RMK A01 T01040097  RH  095%=      5-min Rain = 0
KEA1 231246Z 02013KT 11/10 A3008 RMK A01 T01050097  RH  095%=      5-min Rain = 0
KEA1 231247Z 02013KT 11/10 A3008 RMK A01 T01050098  RH  095%=      5-min Rain = 0
KEA1 231248Z 02013KT 11/10 A3008 RMK A01 T01060098  RH  095%=      5-min Rain = 0
KEA1 231249Z 01012KT 11/10 A3008 RMK A01 T01070099  RH  095%=      5-min Rain = 0
KEA1 231250Z 01011KT 11/10 A3008 RMK A01 T01070100  RH  095%=      5-min Rain = 0
KEA1 231251Z 01013KT 11/10 A3008 RMK A01 T01080100  RH  095%=      5-min Rain = 0
KEA1 231252Z 01012KT 11/10 A3008 RMK A01 T01080100  RH  095%=      5-min Rain = 0
KEA1 231253Z 02014KT 11/10 A3008 RMK A01 T01080100  RH  095%=      5-min Rain = 0
KEA1 231254Z 01014KT 11/10 A3008 RMK A01 T01080099  RH  094%=      5-min Rain = 0
KEA1 231255Z 02011KT 11/10 A3008 RMK A01 T01080099  RH  095%=      5-min Rain = 0
KEA1 231256Z 02011KT 11/10 A3008 RMK A01 T01080100  RH  095%=      5-min Rain = 0
KEA1 231257Z 02011KT 11/10 A3008 RMK A01 T01080100  RH  095%=      5-min Rain = 0
KEA1 231258Z 02012KT 11/10 A3008 RMK A01 T01070100  RH  095%=      5-min Rain = 0
KEA1 231259Z 02013KT 11/10 A3007 RMK A01 T01070100  RH  095%=      5-min Rain = 0
KEA1 231300Z 02015KT 11/10 A3007 RMK A01 T01070099  RH  095%=      5-min Rain = 0
KEA1 231301Z 02016KT 11/10 A3007 RMK A01 T01060099  RH  095%=      5-min Rain = 0
KEA1 231302Z 02016KT 11/10 A3007 RMK A01 T01060099  RH  095%=      5-min Rain = 0
KEA1 231303Z 02019KT 11/10 A3006 RMK A01 T01060099  RH  095%=      5-min Rain = 0
KEA1 231304Z 02016KT 11/10 A3006 RMK A01 T01060098  RH  095%=      5-min Rain = 0
KEA1 231305Z 02017KT 11/10 A3006 RMK A01 T01060099  RH  095%=      5-min Rain = 0
KEA1 231306Z 02017KT 11/10 A3006 RMK A01 T01060099  RH  095%=      5-min Rain = 0
KEA1 231307Z 02016KT 11/10 A3006 RMK A01 T01060099  RH  095%=      5-min Rain = 0
KEA1 231308Z 02014KT 11/10 A3006 RMK A01 T01060099  RH  095%=      5-min Rain = 0
KEA1 231309Z 02018KT 11/10 A3005 RMK A01 T01060099  RH  095%=      5-min Rain = 0
KEA1 231310Z 02018KT 11/10 A3005 RMK A01 T01060099  RH  095%=      5-min Rain = 0
KEA1 231311Z 02019KT 11/10 A3005 RMK A01 T01060099  RH  095%=      5-min Rain = 0
KEA1 231312Z 02019KT 11/10 A3006 RMK A01 T01060098  RH  095%=      5-min Rain = 0
KEA1 231313Z 01018G23KT 11/10 A3006 RMK A01 T01060098  RH  095%=      5-min Rain = 0
KEA1 231314Z 01016KT 11/10 A3007 RMK A01 T01060098  RH  095%=      5-min Rain = 0
KEA1 231315Z 01016KT 11/10 A3007 RMK A01 T01060098  RH  095%=      5-min Rain = 0
KEA1 231316Z 01015KT 11/10 A3007 RMK A01 T01060098  RH  095%=      5-min Rain = 0
KEA1 231317Z 01014KT 11/10 A3008 RMK A01 T01060098  RH  095%=      5-min Rain = 0
KEA1 231318Z 00013G18KT 11/10 A3008 RMK A01 T01060098  RH  095%=      5-min Rain = 0
KEA1 231319Z 00011KT 11/10 A3008 RMK A01 T01060098  RH  095%=      5-min Rain = 0
KEA1 231320Z 00013KT 11/10 A3009 RMK A01 T01060098  RH  095%=      5-min Rain = 0
KEA1 231321Z 36012KT 11/10 A3009 RMK A01 T01060098  RH  095%=      5-min Rain = 0
KEA1 231322Z 35011KT 11/10 A301 RMK A01 T01060098  RH  095%=      5-min Rain = 0
KEA1 231323Z 00012KT 11/10 A301 RMK A01 T01060098  RH  095%=      5-min Rain = 0
KEA1 231324Z 36012KT 11/10 A301 RMK A01 T01060097  RH  095%=      5-min Rain = 0
KEA1 231325Z 36010KT 11/10 A301 RMK A01 T01060098  RH  095%=      5-min Rain = 0
KEA1 231326Z 36009KT 11/10 A301 RMK A01 T01070098  RH  095%=      5-min Rain = 0
KEA1 231327Z 36009KT 11/10 A301 RMK A01 T01070099  RH  095%=      5-min Rain = 0
KEA1 231328Z 36010KT 11/10 A301 RMK A01 T01070099  RH  095%=      5-min Rain = 0
KEA1 231329Z 00013KT 11/10 A301 RMK A01 T01070099  RH  095%=      5-min Rain = 0
KEA1 231330Z 00013KT 11/10 A301 RMK A01 T01070099  RH  094%=      5-min Rain = 0
KEA1 231331Z 36013KT 11/10 A301 RMK A01 T01070098  RH  094%=      5-min Rain = 0
KEA1 231332Z 00013KT 11/10 A301 RMK A01 T01080099  RH  094%=      5-min Rain = 0
KEA1 231333Z 00012KT 11/10 A301 RMK A01 T01080099  RH  094%=      5-min Rain = 0
KEA1 231334Z 00011KT 11/10 A301 RMK A01 T01080100  RH  094%=      5-min Rain = 0
KEA1 231335Z 00009KT 11/10 A301 RMK A01 T01090100  RH  094%=      5-min Rain = 0
KEA1 231336Z 01011KT 11/10 A301 RMK A01 T01090100  RH  094%=      5-min Rain = 0
KEA1 231337Z 01012KT 11/10 A301 RMK A01 T01090100  RH  094%=      5-min Rain = 0
KEA1 231338Z 01011KT 11/10 A301 RMK A01 T01100100  RH  094%=      5-min Rain = 0
KEA1 231339Z 01012KT 11/10 A3011 RMK A01 T01100101  RH  094%=      5-min Rain = 0
KEA1 231340Z 01012KT 11/10 A3011 RMK A01 T01110101  RH  094%=      5-min Rain = 0
KEA1 231341Z 01012KT 11/10 A301 RMK A01 T01110102  RH  094%=      5-min Rain = 0
KEA1 231342Z 01013KT 11/10 A301 RMK A01 T01120102  RH  094%=      5-min Rain = 0
KEA1 231343Z 01014KT 11/10 A301 RMK A01 T01110101  RH  093%=      5-min Rain = 0
KEA1 231344Z 01012KT 11/10 A301 RMK A01 T01110101  RH  093%=      5-min Rain = 0
KEA1 231345Z 01011KT 11/10 A301 RMK A01 T01110101  RH  093%=      5-min Rain = 0
KEA1 231346Z 01012KT 11/10 A301 RMK A01 T01110101  RH  093%=      5-min Rain = 0
KEA1 231347Z 01012KT 11/10 A301 RMK A01 T01110100  RH  093%=      5-min Rain = 0
KEA1 231348Z 01013KT 11/10 A301 RMK A01 T01110100  RH  093%=      5-min Rain = 0
KEA1 231349Z 01012G17KT 11/10 A301 RMK A01 T01110101  RH  093%=      5-min Rain = 0
KEA1 231350Z 01013KT 11/10 A301 RMK A01 T01110101  RH  093%=      5-min Rain = 0
KEA1 231351Z 01011KT 11/10 A301 RMK A01 T01110101  RH  093%=      5-min Rain = 0
KEA1 231352Z 01011KT 11/10 A301 RMK A01 T01120102  RH  094%=      5-min Rain = 0
KEA1 231353Z 01012KT 11/10 A301 RMK A01 T01120103  RH  094%=      5-min Rain = 0
KEA1 231354Z 02014KT 11/10 A301 RMK A01 T01120102  RH  094%=      5-min Rain = 0
KEA1 231355Z 01013KT 11/10 A301 RMK A01 T01120102  RH  093%=      5-min Rain = 0
KEA1 231356Z 02014KT 11/10 A301 RMK A01 T01120102  RH  093%=      5-min Rain = 0
KEA1 231357Z 02014KT 11/10 A301 RMK A01 T01120101  RH  093%=      5-min Rain = 0
KEA1 231358Z 02015KT 11/10 A301 RMK A01 T01120101  RH  093%=      5-min Rain = 0
KEA1 231359Z 01013KT 11/10 A301 RMK A01 T01120100  RH  092%=      5-min Rain = 0
KEA1 231400Z 01013KT 11/10 A301 RMK A01 T01120101  RH  093%=      5-min Rain = 0
KEA1 231401Z 01013G18KT 11/10 A301 RMK A01 T01130103  RH  093%=      5-min Rain = 0
KEA1 231402Z 01013KT 11/10 A301 RMK A01 T01130102  RH  093%=      5-min Rain = 0
KEA1 231403Z 01014KT 11/10 A301 RMK A01 T01140103  RH  093%=      5-min Rain = 0
KEA1 231404Z 01016KT 11/10 A301 RMK A01 T01140102  RH  092%=      5-min Rain = 0
KEA1 231405Z 02016KT 11/10 A301 RMK A01 T01140100  RH  091%=      5-min Rain = 0
KEA1 231406Z 01014KT 11/10 A3011 RMK A01 T01130100  RH  091%=      5-min Rain = 0
KEA1 231407Z 01014KT 11/10 A301 RMK A01 T01130101  RH  092%=      5-min Rain = 0
KEA1 231408Z 01013KT 11/10 A3011 RMK A01 T01130101  RH  092%=      5-min Rain = 0
KEA1 231409Z 01014KT 11/10 A3011 RMK A01 T01140102  RH  092%=      5-min Rain = 0
KEA1 231410Z 02016KT 11/10 A3011 RMK A01 T01140101  RH  092%=      5-min Rain = 0
KEA1 231411Z 01014KT 11/10 A3011 RMK A01 T01130100  RH  092%=      5-min Rain = 0
KEA1 231412Z 01015KT 11/10 A3011 RMK A01 T01130101  RH  092%=      5-min Rain = 0
KEA1 231413Z 01016KT 11/10 A3011 RMK A01 T01130100  RH  092%=      5-min Rain = 0
KEA1 231414Z 01017KT 11/10 A3011 RMK A01 T01130099  RH  091%=      5-min Rain = 0
KEA1 231415Z 01015KT 11/10 A3011 RMK A01 T01120099  RH  092%=      5-min Rain = 0
KEA1 231416Z 01015KT 11/10 A3011 RMK A01 T01120100  RH  092%=      5-min Rain = 0
KEA1 231417Z 01016KT 11/10 A3011 RMK A01 T01120099  RH  092%=      5-min Rain = 0
KEA1 231418Z 01013KT 11/10 A3011 RMK A01 T01120100  RH  092%=      5-min Rain = 0
KEA1 231419Z 01014KT 11/10 A3011 RMK A01 T01120100  RH  092%=      5-min Rain = 0
KEA1 231420Z 01014KT 11/10 A3011 RMK A01 T01120101  RH  093%=      5-min Rain = 0
KEA1 231421Z 02014KT 11/10 A301 RMK A01 T01120101  RH  093%=      5-min Rain = 0
KEA1 231422Z 02013KT 11/10 A3011 RMK A01 T01120100  RH  092%=      5-min Rain = 0
KEA1 231423Z 01014KT 11/10 A3011 RMK A01 T01120101  RH  093%=      5-min Rain = 0
KEA1 231424Z 01014KT 11/10 A3011 RMK A01 T01120100  RH  092%=      5-min Rain = 0
KEA1 231425Z 02014KT 11/10 A3011 RMK A01 T01120100  RH  092%=      5-min Rain = 0
KEA1 231426Z 02014KT 11/10 A3011 RMK A01 T01120100  RH  092%=      5-min Rain = 0
KEA1 231427Z 02016KT 11/10 A3011 RMK A01 T01120099  RH  092%=      5-min Rain = 0
KEA1 231428Z 02016KT 11/10 A3011 RMK A01 T01120099  RH  092%=      5-min Rain = 0
KEA1 231429Z 02016KT 11/10 A3011 RMK A01 T01120099  RH  092%=      5-min Rain = 0
KEA1 231430Z 01014KT 11/10 A3011 RMK A01 T01120099  RH  092%=      5-min Rain = 0
KEA1 231431Z 01015KT 11/10 A3011 RMK A01 T01120099  RH  092%=      5-min Rain = 0
KEA1 231432Z 02015KT 11/10 A3011 RMK A01 T01120099  RH  092%=      5-min Rain = 0
KEA1 231433Z 02017KT 11/10 A3011 RMK A01 T01120099  RH  092%=      5-min Rain = 0
KEA1 231434Z 01017KT 11/10 A3011 RMK A01 T01120098  RH  091%=      5-min Rain = 0
KEA1 231435Z 01018KT 11/10 A3011 RMK A01 T01110098  RH  091%=      5-min Rain = 0
KEA1 231436Z 02015KT 11/10 A3011 RMK A01 T01110097  RH  091%=      5-min Rain = 0
KEA1 231437Z 02016KT 11/10 A3011 RMK A01 T01110098  RH  092%=      5-min Rain = 0
KEA1 231438Z 02016KT 11/10 A3011 RMK A01 T01110098  RH  092%=      5-min Rain = 0
KEA1 231439Z 02015KT 11/10 A3011 RMK A01 T01110098  RH  092%=      5-min Rain = 0
KEA1 231440Z 02015KT 11/10 A3011 RMK A01 T01110098  RH  092%=      5-min Rain = 0
KEA1 231441Z 02016KT 11/10 A3011 RMK A01 T01110098  RH  092%=      5-min Rain = 0
KEA1 231442Z 02018KT 11/10 A3011 RMK A01 T01110098  RH  092%=      5-min Rain = 0
KEA1 231443Z 02015KT 11/10 A3011 RMK A01 T01110098  RH  092%=      5-min Rain = 0
KEA1 231444Z 02017KT 11/10 A3011 RMK A01 T01110098  RH  092%=      5-min Rain = 0
KEA1 231445Z 02015KT 11/10 A3011 RMK A01 T01110098  RH  092%=      5-min Rain = 0
KEA1 231446Z 02014KT 11/10 A3011 RMK A01 T01110099  RH  092%=      5-min Rain = 0
KEA1 231447Z 02016KT 11/10 A3011 RMK A01 T01110099  RH  092%=      5-min Rain = 0
KEA1 231448Z 02014KT 11/10 A3011 RMK A01 T01110099  RH  092%=      5-min Rain = 0
KEA1 231449Z 02011KT 11/10 A3011 RMK A01 T01120100  RH  093%=      5-min Rain = 0
KEA1 231450Z 02014KT 11/10 A301 RMK A01 T01120101  RH  093%=      5-min Rain = 0
KEA1 231451Z 02014KT 11/10 A301 RMK A01 T01120101  RH  093%=      5-min Rain = 0
KEA1 231452Z 02013KT 11/10 A301 RMK A01 T01120101  RH  092%=      5-min Rain = 0
KEA1 231453Z 02012KT 11/10 A301 RMK A01 T01120101  RH  093%=      5-min Rain = 0
KEA1 231454Z 02012KT 11/10 A301 RMK A01 T01130102  RH  093%=      5-min Rain = 0
KEA1 231455Z 02013KT 11/10 A301 RMK A01 T01140103  RH  093%=      5-min Rain = 0
KEA1 231456Z 02016KT 11/10 A301 RMK A01 T01130102  RH  092%=      5-min Rain = 0
KEA1 231457Z 02017KT 11/10 A301 RMK A01 T01130100  RH  091%=      5-min Rain = 0
KEA1 231458Z 03014KT 11/10 A3011 RMK A01 T01130099  RH  091%=      5-min Rain = 0
KEA1 231459Z 03016KT 11/10 A3011 RMK A01 T01130100  RH  091%=      5-min Rain = 0
KEA1 231500Z 02015KT 11/10 A3011 RMK A01 T01130099  RH  091%=      5-min Rain = 0
KEA1 231501Z 02012KT 11/10 A3011 RMK A01 T01130100  RH  091%=      5-min Rain = 0
KEA1 231502Z 02013KT 11/10 A3011 RMK A01 T01140101  RH  092%=      5-min Rain = 0
KEA1 231503Z 02017KT 11/10 A3011 RMK A01 T01140100  RH  092%=      5-min Rain = 0
KEA1 231504Z 03013KT 11/10 A3011 RMK A01 T01140100  RH  091%=      5-min Rain = 0
KEA1 231505Z 03014KT 11/10 A3011 RMK A01 T01140101  RH  092%=      5-min Rain = 0
KEA1 231506Z 03015KT 11/10 A3011 RMK A01 T01140101  RH  092%=      5-min Rain = 0
KEA1 231507Z 03015KT 11/10 A3011 RMK A01 T01130100  RH  091%=      5-min Rain = 0
KEA1 231508Z 03012KT 11/10 A3011 RMK A01 T01140101  RH  092%=      5-min Rain = 0
KEA1 231509Z 03015KT 11/10 A3011 RMK A01 T01140102  RH  092%=      5-min Rain = 0
KEA1 231510Z 03013KT 11/10 A3011 RMK A01 T01140101  RH  091%=      5-min Rain = 0
KEA1 231511Z 02014KT 11/10 A3011 RMK A01 T01140101  RH  092%=      5-min Rain = 0
KEA1 231512Z 02013KT 11/10 A3011 RMK A01 T01140101  RH  091%=      5-min Rain = 0
KEA1 231513Z 03013G19KT 11/10 A3011 RMK A01 T01140102  RH  092%=      5-min Rain = 0
KEA1 231514Z 02016KT 11/10 A3011 RMK A01 T01140101  RH  091%=      5-min Rain = 0
KEA1 231515Z 02017KT 11/10 A3011 RMK A01 T01140100  RH  091%=      5-min Rain = 0
KEA1 231516Z 02015KT 11/10 A3011 RMK A01 T01130099  RH  091%=      5-min Rain = 0
KEA1 231517Z 02015KT 11/10 A3011 RMK A01 T01130100  RH  092%=      5-min Rain = 0
KEA1 231518Z 03015KT 11/10 A3011 RMK A01 T01130100  RH  092%=      5-min Rain = 0
KEA1 231519Z 03014KT 11/10 A3012 RMK A01 T01130099  RH  091%=      5-min Rain = 0
KEA1 231520Z 03013KT 11/10 A3012 RMK A01 T01140100  RH  091%=      5-min Rain = 0
KEA1 231521Z 03012KT 11/10 A3012 RMK A01 T01140100  RH  091%=      5-min Rain = 0
KEA1 231522Z 02012KT 11/10 A3012 RMK A01 T01140100  RH  091%=      5-min Rain = 0
KEA1 231523Z 01013KT 11/10 A3012 RMK A01 T01140100  RH  091%=      5-min Rain = 0
KEA1 231524Z 02012KT 11/10 A3012 RMK A01 T01140100  RH  091%=      5-min Rain = 0
KEA1 231525Z 02014KT 11/10 A3012 RMK A01 T01130100  RH  091%=      5-min Rain = 0
KEA1 231526Z 02014KT 11/10 A3012 RMK A01 T01140099  RH  091%=      5-min Rain = 0
KEA1 231527Z 02011KT 11/10 A3012 RMK A01 T01140100  RH  091%=      5-min Rain = 0
KEA1 231528Z 02013KT 11/10 A3012 RMK A01 T01140100  RH  091%=      5-min Rain = 0
KEA1 231529Z 03012KT 11/10 A3012 RMK A01 T01140101  RH  092%=      5-min Rain = 0
KEA1 231530Z 03014KT 11/10 A3012 RMK A01 T01140100  RH  091%=      5-min Rain = 0
KEA1 231531Z 03014KT 11/10 A3012 RMK A01 T01140100  RH  091%=      5-min Rain = 0
KEA1 231532Z 03014KT 11/10 A3012 RMK A01 T01140100  RH  091%=      5-min Rain = 0
KEA1 231533Z 03015KT 11/10 A3012 RMK A01 T01140100  RH  091%=      5-min Rain = 0
KEA1 231534Z 03016KT 11/10 A3012 RMK A01 T01130099  RH  091%=      5-min Rain = 0
KEA1 231535Z 03018KT 11/10 A3012 RMK A01 T01130099  RH  091%=      5-min Rain = 0
KEA1 231536Z 03019KT 11/10 A3012 RMK A01 T01130098  RH  091%=      5-min Rain = 0
KEA1 231537Z 03017KT 11/10 A3012 RMK A01 T01130098  RH  091%=      5-min Rain = 0
KEA1 231538Z 03016KT 11/10 A3012 RMK A01 T01130099  RH  091%=      5-min Rain = 0
KEA1 231539Z 02017KT 11/10 A3012 RMK A01 T01130098  RH  091%=      5-min Rain = 0
KEA1 231540Z 03014KT 11/10 A3012 RMK A01 T01130098  RH  091%=      5-min Rain = 0
KEA1 231541Z 03015KT 11/10 A3012 RMK A01 T01130099  RH  091%=      5-min Rain = 0
KEA1 231542Z 04012KT 11/10 A3012 RMK A01 T01130099  RH  091%=      5-min Rain = 0
KEA1 231543Z 04016KT 11/10 A3012 RMK A01 T01140100  RH  091%=      5-min Rain = 0
KEA1 231544Z 03013KT 11/10 A3011 RMK A01 T01130099  RH  091%=      5-min Rain = 0
KEA1 231545Z 04015KT 11/10 A3011 RMK A01 T01130100  RH  092%=      5-min Rain = 0
KEA1 231546Z 04017KT 11/10 A3011 RMK A01 T01130099  RH  091%=      5-min Rain = 0
KEA1 231547Z 04019KT 11/10 A3011 RMK A01 T01130099  RH  091%=      5-min Rain = 0
KEA1 231548Z 04019KT 11/10 A3011 RMK A01 T01130098  RH  091%=      5-min Rain = 0
KEA1 231549Z 03020KT 11/10 A301 RMK A01 T01130098  RH  091%=      5-min Rain = 0
KEA1 231550Z 04020KT 11/10 A301 RMK A01 T01130098  RH  090%=      5-min Rain = 0
KEA1 231551Z 03019G25KT 11/10 A3011 RMK A01 T01130098  RH  091%=      5-min Rain = 0
KEA1 231552Z 03018KT 11/10 A3011 RMK A01 T01130098  RH  090%=      5-min Rain = 0
KEA1 231553Z 03020KT 11/10 A3011 RMK A01 T01130098  RH  090%=      5-min Rain = 0
KEA1 231554Z 03019KT 11/10 A3011 RMK A01 T01130098  RH  090%=      5-min Rain = 0
KEA1 231555Z 03019KT 11/10 A3011 RMK A01 T01130097  RH  090%=      5-min Rain = 0
KEA1 231556Z 03018KT 11/10 A3011 RMK A01 T01130097  RH  090%=      5-min Rain = 0
KEA1 231557Z 03019KT 11/10 A3011 RMK A01 T01130098  RH  090%=      5-min Rain = 0
KEA1 231558Z 03019KT 11/10 A3011 RMK A01 T01130097  RH  090%=      5-min Rain = 0
KEA1 231559Z 04017KT 11/10 A3011 RMK A01 T01130097  RH  090%=      5-min Rain = 0
KEA1 231600Z 04018KT 11/10 A3011 RMK A01 T01130098  RH  090%=      5-min Rain = 0
KEA1 231601Z 05017KT 11/10 A3011 RMK A01 T01130097  RH  090%=      5-min Rain = 0
KEA1 231602Z 04016KT 11/10 A3011 RMK A01 T01130098  RH  090%=      5-min Rain = 0
KEA1 231603Z 04016KT 11/10 A3011 RMK A01 T01130098  RH  090%=      5-min Rain = 0
KEA1 231604Z 04016KT 11/10 A3011 RMK A01 T01130098  RH  090%=      5-min Rain = 0
KEA1 231605Z 04017KT 11/10 A3011 RMK A01 T01140098  RH  090%=      5-min Rain = 0
KEA1 231606Z 04016KT 11/10 A3011 RMK A01 T01140099  RH  090%=      5-min Rain = 0
KEA1 231607Z 04017KT 11/10 A3011 RMK A01 T01140099  RH  090%=      5-min Rain = 0
KEA1 231608Z 05016KT 11/10 A3011 RMK A01 T01140099  RH  090%=      5-min Rain = 0
KEA1 231609Z 04015KT 11/10 A301 RMK A01 T01140099  RH  090%=      5-min Rain = 0
KEA1 231610Z 04018KT 12/10 A301 RMK A01 T01150100  RH  091%=      5-min Rain = 0
KEA1 231611Z 04017KT 12/10 A301 RMK A01 T01150099  RH  090%=      5-min Rain = 0
KEA1 231612Z 04020KT 11/10 A301 RMK A01 T01140098  RH  090%=      5-min Rain = 0
KEA1 231613Z 04016KT 11/10 A301 RMK A01 T01140098  RH  090%=      5-min Rain = 0
KEA1 231614Z 04018KT 11/10 A301 RMK A01 T01130098  RH  090%=      5-min Rain = 0
KEA1 231615Z 04018KT 11/10 A301 RMK A01 T01140098  RH  090%=      5-min Rain = 0
KEA1 231616Z 04018KT 11/10 A301 RMK A01 T01140099  RH  090%=      5-min Rain = 0
KEA1 231617Z 04015KT 11/10 A3011 RMK A01 T01140099  RH  090%=      5-min Rain = 0
KEA1 231618Z 04016KT 12/10 A3011 RMK A01 T01150099  RH  090%=      5-min Rain = 0
KEA1 231619Z 04015KT 12/10 A3011 RMK A01 T01150099  RH  090%=      5-min Rain = 0
KEA1 231620Z 03017KT 12/10 A3011 RMK A01 T01150099  RH  090%=      5-min Rain = 0
KEA1 231621Z 03018KT 12/10 A3011 RMK A01 T01150098  RH  089%=      5-min Rain = 0
KEA1 231622Z 03017G22KT 12/10 A3011 RMK A01 T01150098  RH  090%=      5-min Rain = 0
KEA1 231623Z 03020KT 11/10 A3011 RMK A01 T01140098  RH  089%=      5-min Rain = 0
KEA1 231624Z 03018KT 11/10 A3011 RMK A01 T01140097  RH  090%=      5-min Rain = 0
KEA1 231625Z 03018KT 11/10 A3011 RMK A01 T01140099  RH  090%=      5-min Rain = 0
KEA1 231626Z 04017KT 11/10 A3011 RMK A01 T01140099  RH  090%=      5-min Rain = 0
KEA1 231627Z 04020KT 12/10 A3011 RMK A01 T01150099  RH  090%=      5-min Rain = 0
KEA1 231628Z 04019KT 12/10 A3011 RMK A01 T01150098  RH  089%=      5-min Rain = 0
KEA1 231629Z 04018KT 12/10 A3011 RMK A01 T01150098  RH  090%=      5-min Rain = 0
KEA1 231630Z 04018KT 12/10 A3011 RMK A01 T01150099  RH  090%=      5-min Rain = 0
KEA1 231631Z 03019KT 12/10 A3011 RMK A01 T01150098  RH  089%=      5-min Rain = 0
KEA1 231632Z 04016KT 12/10 A3012 RMK A01 T01150098  RH  089%=      5-min Rain = 0
KEA1 231633Z 04017KT 12/10 A3012 RMK A01 T01160100  RH  090%=      5-min Rain = 0
KEA1 231634Z 04018KT 12/10 A3012 RMK A01 T01160098  RH  089%=      5-min Rain = 0
KEA1 231635Z 04017KT 12/10 A3012 RMK A01 T01160099  RH  089%=      5-min Rain = 0
KEA1 231636Z 04017KT 12/10 A3012 RMK A01 T01160099  RH  089%=      5-min Rain = 0
KEA1 231637Z 04015KT 12/10 A3012 RMK A01 T01160099  RH  089%=      5-min Rain = 0
KEA1 231638Z 04016KT 12/10 A3012 RMK A01 T01160100  RH  090%=      5-min Rain = 0
KEA1 231639Z 04012G17KT 12/10 A3012 RMK A01 T01170101  RH  090%=      5-min Rain = 0
KEA1 231640Z 03017KT 12/10 A3012 RMK A01 T01180102  RH  090%=      5-min Rain = 0
KEA1 231641Z 04014KT 12/10 A3013 RMK A01 T01180100  RH  089%=      5-min Rain = 0
KEA1 231642Z 04017KT 12/10 A3013 RMK A01 T01180100  RH  089%=      5-min Rain = 0
KEA1 231643Z 03015KT 12/10 A3013 RMK A01 T01180100  RH  089%=      5-min Rain = 0
KEA1 231644Z 04016KT 12/10 A3013 RMK A01 T01170100  RH  089%=      5-min Rain = 0
KEA1 231645Z 04016KT 12/10 A3013 RMK A01 T01170100  RH  089%=      5-min Rain = 0
KEA1 231646Z 04016KT 12/10 A3013 RMK A01 T01180100  RH  089%=      5-min Rain = 0
KEA1 231647Z 04014KT 12/10 A3013 RMK A01 T01180100  RH  089%=      5-min Rain = 0
KEA1 231648Z 04015KT 12/10 A3013 RMK A01 T01180100  RH  089%=      5-min Rain = 0
KEA1 231649Z 04015KT 12/10 A3013 RMK A01 T01190101  RH  089%=      5-min Rain = 0
KEA1 231650Z 04015KT 12/10 A3013 RMK A01 T01200102  RH  089%=      5-min Rain = 0
KEA1 231651Z 04016KT 12/10 A3013 RMK A01 T01210102  RH  088%=      5-min Rain = 0
KEA1 231652Z 04015KT 12/10 A3013 RMK A01 T01210102  RH  088%=      5-min Rain = 0
KEA1 231653Z 03016KT 12/10 A3013 RMK A01 T01210101  RH  088%=      5-min Rain = 0
KEA1 231654Z 04015KT 12/10 A3013 RMK A01 T01210102  RH  088%=      5-min Rain = 0
KEA1 231655Z 03013KT 12/10 A3013 RMK A01 T01210102  RH  088%=      5-min Rain = 0
KEA1 231656Z 04013KT 12/10 A3013 RMK A01 T01220103  RH  088%=      5-min Rain = 0
KEA1 231657Z 04015KT 12/10 A3013 RMK A01 T01230104  RH  088%=      5-min Rain = 0
KEA1 231658Z 04015KT 12/10 A3013 RMK A01 T01230102  RH  087%=      5-min Rain = 0
KEA1 231659Z 04011KT 12/10 A3013 RMK A01 T01220100  RH  086%=      5-min Rain = 0
KEA1 231700Z 04013KT 12/10 A3013 RMK A01 T01220104  RH  088%=      5-min Rain = 0
KEA1 231701Z 03015KT 12/10 A3013 RMK A01 T01230103  RH  088%=      5-min Rain = 0
KEA1 231702Z 03017KT 12/10 A3013 RMK A01 T01220101  RH  087%=      5-min Rain = 0
KEA1 231703Z 03016KT 12/10 A3013 RMK A01 T01200099  RH  087%=      5-min Rain = 0
KEA1 231704Z 03015KT 12/10 A3013 RMK A01 T01190098  RH  087%=      5-min Rain = 0
KEA1 231705Z 03012KT 12/10 A3013 RMK A01 T01190100  RH  088%=      5-min Rain = 0
KEA1 231706Z 04011G17KT 12/10 A3013 RMK A01 T01200102  RH  089%=      5-min Rain = 0
KEA1 231707Z 04015KT 12/10 A3013 RMK A01 T01210101  RH  088%=      5-min Rain = 0
KEA1 231708Z 05013KT 12/10 A3013 RMK A01 T01210100  RH  087%=      5-min Rain = 0
KEA1 231709Z 04015KT 12/10 A3013 RMK A01 T01210101  RH  087%=      5-min Rain = 0
KEA1 231710Z 04014KT 12/10 A3013 RMK A01 T01220101  RH  087%=      5-min Rain = 0
KEA1 231711Z 03014KT 12/10 A3013 RMK A01 T01220101  RH  087%=      5-min Rain = 0
KEA1 231712Z 03013KT 12/10 A3013 RMK A01 T01220101  RH  087%=      5-min Rain = 0
KEA1 231713Z 03014KT 12/10 A3013 RMK A01 T01200101  RH  088%=      5-min Rain = 0
KEA1 231714Z 03014KT 12/10 A3013 RMK A01 T01200100  RH  088%=      5-min Rain = 0
KEA1 231715Z 02013KT 12/10 A3013 RMK A01 T01190100  RH  088%=      5-min Rain = 0
KEA1 231716Z 03011KT 12/10 A3013 RMK A01 T01180101  RH  089%=      5-min Rain = 0
KEA1 231717Z 03015KT 12/10 A3013 RMK A01 T01190102  RH  089%=      5-min Rain = 0
KEA1 231718Z 03015KT 12/10 A3012 RMK A01 T01200101  RH  089%=      5-min Rain = 0
KEA1 231719Z 04014KT 12/10 A3012 RMK A01 T01190101  RH  088%=      5-min Rain = 0
KEA1 231720Z 03014KT 12/10 A3013 RMK A01 T01200102  RH  089%=      5-min Rain = 0
KEA1 231721Z 04016KT 12/10 A3012 RMK A01 T01210101  RH  088%=      5-min Rain = 0
KEA1 231722Z 03013KT 12/10 A3013 RMK A01 T01210100  RH  087%=      5-min Rain = 0
KEA1 231723Z 03012KT 12/10 A3013 RMK A01 T01210102  RH  088%=      5-min Rain = 0
KEA1 231724Z 04015KT 12/10 A3013 RMK A01 T01210101  RH  087%=      5-min Rain = 0
KEA1 231725Z 04013KT 12/10 A3013 RMK A01 T01210100  RH  087%=      5-min Rain = 0
KEA1 231726Z 04016KT 12/10 A3013 RMK A01 T01200100  RH  087%=      5-min Rain = 0
KEA1 231727Z 04014KT 12/10 A3013 RMK A01 T01200100  RH  088%=      5-min Rain = 0
KEA1 231728Z 03015KT 12/10 A3013 RMK A01 T01200101  RH  088%=      5-min Rain = 0
KEA1 231729Z 03014KT 12/10 A3012 RMK A01 T01200100  RH  088%=      5-min Rain = 0
KEA1 231730Z 04014KT 12/10 A3013 RMK A01 T01200101  RH  089%=      5-min Rain = 0
KEA1 231731Z 04014KT 12/10 A3012 RMK A01 T01200100  RH  088%=      5-min Rain = 0
KEA1 231732Z 04014KT 12/10 A3012 RMK A01 T01200100  RH  088%=      5-min Rain = 0
KEA1 231733Z 04014KT 12/10 A3012 RMK A01 T01200100  RH  088%=      5-min Rain = 0
KEA1 231734Z 04015KT 12/10 A3012 RMK A01 T01200101  RH  088%=      5-min Rain = 0
KEA1 231735Z 04013KT 12/10 A3012 RMK A01 T01210102  RH  088%=      5-min Rain = 0
KEA1 231736Z 04015KT 12/10 A3012 RMK A01 T01230104  RH  088%=      5-min Rain = 0
KEA1 231737Z 03015KT 12/10 A3012 RMK A01 T01230103  RH  088%=      5-min Rain = 0
KEA1 231738Z 03014KT 12/10 A3012 RMK A01 T01220102  RH  087%=      5-min Rain = 0
KEA1 231739Z 03015KT 12/10 A3012 RMK A01 T01210102  RH  088%=      5-min Rain = 0
KEA1 231740Z 02016KT 12/10 A3011 RMK A01 T01210101  RH  088%=      5-min Rain = 0
KEA1 231741Z 04015KT 12/10 A3011 RMK A01 T01200100  RH  088%=      5-min Rain = 0
KEA1 231742Z 03016KT 12/10 A3011 RMK A01 T01200101  RH  089%=      5-min Rain = 0
KEA1 231743Z 03016KT 12/10 A3011 RMK A01 T01190100  RH  088%=      5-min Rain = 0
KEA1 231744Z 03014KT 12/10 A3012 RMK A01 T01190101  RH  088%=      5-min Rain = 0
KEA1 231745Z 03014KT 12/10 A3012 RMK A01 T01200101  RH  088%=      5-min Rain = 0
KEA1 231746Z 03013KT 12/10 A3012 RMK A01 T01200101  RH  088%=      5-min Rain = 0
KEA1 231747Z 04014KT 12/10 A3012 RMK A01 T01200101  RH  088%=      5-min Rain = 0
KEA1 231748Z 03012KT 12/10 A3012 RMK A01 T01200102  RH  089%=      5-min Rain = 0
KEA1 231749Z 03015KT 12/10 A3012 RMK A01 T01200101  RH  088%=      5-min Rain = 0
KEA1 231750Z 03013KT 12/10 A3012 RMK A01 T01200101  RH  088%=      5-min Rain = 0
KEA1 231751Z 03011KT 12/10 A3012 RMK A01 T01200103  RH  090%=      5-min Rain = 0
KEA1 231752Z 03014KT 12/10 A3012 RMK A01 T01210104  RH  089%=      5-min Rain = 0
KEA1 231753Z 03012G18KT 12/10 A3012 RMK A01 T01220103  RH  088%=      5-min Rain = 0
KEA1 231754Z 03015KT 12/10 A3011 RMK A01 T01220101  RH  087%=      5-min Rain = 0
KEA1 231755Z 02014KT 12/10 A3011 RMK A01 T01200099  RH  087%=      5-min Rain = 0
KEA1 231756Z 02016KT 12/10 A3011 RMK A01 T01190100  RH  088%=      5-min Rain = 0
KEA1 231757Z 04015KT 12/10 A3011 RMK A01 T01190100  RH  088%=      5-min Rain = 0
KEA1 231758Z 03015KT 12/10 A3011 RMK A01 T01190100  RH  088%=      5-min Rain = 0
KEA1 231759Z 03016KT 12/10 A3011 RMK A01 T01190099  RH  088%=      5-min Rain = 0
KEA1 231800Z 03015KT 12/10 A3011 RMK A01 T01190099  RH  087%=      5-min Rain = 0
KEA1 231801Z 04011KT 12/10 A3012 RMK A01 T01190099  RH  087%=      5-min Rain = 0
KEA1 231802Z 04011KT 12/10 A3012 RMK A01 T01200101  RH  088%=      5-min Rain = 0
KEA1 231803Z 04013KT 12/10 A3012 RMK A01 T01210101  RH  088%=      5-min Rain = 0
KEA1 231804Z 04011KT 12/10 A3012 RMK A01 T01210101  RH  087%=      5-min Rain = 0
KEA1 231805Z 03011KT 12/10 A3012 RMK A01 T01220102  RH  088%=      5-min Rain = 0
KEA1 231806Z 03010KT 12/10 A3012 RMK A01 T01220101  RH  087%=      5-min Rain = 0
KEA1 231807Z 03010KT 12/10 A3012 RMK A01 T01210101  RH  087%=      5-min Rain = 0
KEA1 231808Z 02010KT 12/10 A3012 RMK A01 T01220102  RH  088%=      5-min Rain = 0
KEA1 231809Z 03012KT 12/10 A3011 RMK A01 T01220101  RH  087%=      5-min Rain = 0
KEA1 231810Z 02013KT 12/10 A3011 RMK A01 T01220102  RH  087%=      5-min Rain = 0
KEA1 231811Z 03015KT 12/10 A3011 RMK A01 T01220101  RH  087%=      5-min Rain = 0
KEA1 231812Z 03013KT 12/10 A3011 RMK A01 T01210100  RH  087%=      5-min Rain = 0
KEA1 231813Z 03013KT 12/10 A3011 RMK A01 T01210100  RH  087%=      5-min Rain = 0
KEA1 231814Z 02014KT 12/10 A3011 RMK A01 T01200100  RH  087%=      5-min Rain = 0
KEA1 231815Z 03012KT 12/10 A3011 RMK A01 T01200099  RH  087%=      5-min Rain = 0
KEA1 231816Z 04010KT 12/10 A3011 RMK A01 T01200101  RH  088%=      5-min Rain = 0
KEA1 231817Z 04015KT 12/10 A3011 RMK A01 T01200100  RH  087%=      5-min Rain = 0
KEA1 231818Z 03014KT 12/10 A3011 RMK A01 T01190099  RH  087%=      5-min Rain = 0
KEA1 231819Z 03013KT 12/10 A3011 RMK A01 T01190099  RH  088%=      5-min Rain = 0
KEA1 231820Z 02012KT 12/10 A3011 RMK A01 T01180099  RH  088%=      5-min Rain = 0
KEA1 231821Z 03013KT 12/10 A3011 RMK A01 T01190100  RH  088%=      5-min Rain = 0
KEA1 231822Z 03013KT 12/10 A3011 RMK A01 T01180098  RH  088%=      5-min Rain = 0
KEA1 231823Z 02012KT 12/10 A3012 RMK A01 T01190100  RH  088%=      5-min Rain = 0
KEA1 231824Z 02011KT 12/10 A3011 RMK A01 T01200101  RH  088%=      5-min Rain = 0
KEA1 231825Z 02014KT 12/10 A3011 RMK A01 T01200101  RH  088%=      5-min Rain = 0
KEA1 231826Z 03013KT 12/10 A3011 RMK A01 T01200100  RH  088%=      5-min Rain = 0
KEA1 231827Z 03012KT 12/10 A3011 RMK A01 T01200100  RH  087%=      5-min Rain = 0
KEA1 231828Z 03010KT 12/10 A3011 RMK A01 T01200101  RH  088%=      5-min Rain = 0
KEA1 231829Z 03013KT 12/10 A3011 RMK A01 T01200101  RH  088%=      5-min Rain = 0
KEA1 231830Z 03010KT 12/10 A3011 RMK A01 T01210100  RH  087%=      5-min Rain = 0
KEA1 231831Z 03012KT 12/10 A3011 RMK A01 T01210101  RH  087%=      5-min Rain = 0
KEA1 231832Z 03011KT 12/10 A3011 RMK A01 T01210100  RH  087%=      5-min Rain = 0
KEA1 231833Z 02013KT 12/10 A3011 RMK A01 T01210101  RH  088%=      5-min Rain = 0
KEA1 231834Z 03014KT 12/10 A3011 RMK A01 T01210099  RH  087%=      5-min Rain = 0
KEA1 231835Z 03013KT 12/10 A3011 RMK A01 T01210100  RH  087%=      5-min Rain = 0
KEA1 231836Z 03013KT 12/10 A3011 RMK A01 T01200100  RH  087%=      5-min Rain = 0
KEA1 231837Z 02011KT 12/10 A3011 RMK A01 T01210101  RH  088%=      5-min Rain = 0
KEA1 231838Z 03015KT 12/10 A3011 RMK A01 T01220101  RH  087%=      5-min Rain = 0
KEA1 231839Z 03013KT 12/10 A3011 RMK A01 T01210100  RH  087%=      5-min Rain = 0
KEA1 231840Z 02013KT 12/10 A3011 RMK A01 T01200100  RH  087%=      5-min Rain = 0
KEA1 231841Z 02013KT 12/10 A3011 RMK A01 T01200099  RH  087%=      5-min Rain = 0
KEA1 231842Z 03012KT 12/10 A3011 RMK A01 T01190099  RH  088%=      5-min Rain = 0
KEA1 231843Z 03012KT 12/10 A3011 RMK A01 T01190100  RH  088%=      5-min Rain = 0
KEA1 231844Z 03012KT 12/10 A3011 RMK A01 T01200099  RH  087%=      5-min Rain = 0
KEA1 231845Z 02013KT 12/10 A3011 RMK A01 T01190099  RH  088%=      5-min Rain = 0
KEA1 231846Z 02015KT 12/10 A3011 RMK A01 T01180098  RH  087%=      5-min Rain = 0
KEA1 231847Z 02014KT 12/10 A3011 RMK A01 T01180098  RH  088%=      5-min Rain = 0
KEA1 231848Z 02013KT 12/10 A3011 RMK A01 T01180098  RH  088%=      5-min Rain = 0
KEA1 231849Z 02014KT 12/10 A3011 RMK A01 T01180098  RH  088%=      5-min Rain = 0
KEA1 231850Z 02011KT 12/10 A3011 RMK A01 T01180097  RH  087%=      5-min Rain = 0
KEA1 231851Z 03012KT 12/10 A3011 RMK A01 T01180099  RH  088%=      5-min Rain = 0
KEA1 231852Z 03014KT 12/10 A3011 RMK A01 T01180098  RH  088%=      5-min Rain = 0
KEA1 231853Z 03012KT 12/10 A3011 RMK A01 T01180099  RH  088%=      5-min Rain = 0
KEA1 231854Z 03013KT 12/10 A3011 RMK A01 T01180099  RH  088%=      5-min Rain = 0
KEA1 231855Z 03012KT 12/10 A3011 RMK A01 T01190098  RH  087%=      5-min Rain = 0
KEA1 231856Z 03011KT 12/10 A3011 RMK A01 T01190098  RH  087%=      5-min Rain = 0
KEA1 231857Z 03010KT 12/10 A3011 RMK A01 T01200101  RH  088%=      5-min Rain = 0
KEA1 231858Z 03010KT 12/10 A3011 RMK A01 T01230103  RH  088%=      5-min Rain = 0
KEA1 231859Z 03012KT 12/10 A3011 RMK A01 T01240101  RH  086%=      5-min Rain = 0
KEA1 231900Z 03011KT 12/10 A3011 RMK A01 T01240101  RH  085%=      5-min Rain = 0
KEA1 231901Z 04012KT 12/10 A3011 RMK A01 T01240101  RH  086%=      5-min Rain = 0
KEA1 231902Z 02013KT 12/10 A3011 RMK A01 T01240102  RH  086%=      5-min Rain = 0
KEA1 231903Z 02013KT 12/10 A3011 RMK A01 T01240103  RH  087%=      5-min Rain = 0
KEA1 231904Z 01015KT 12/10 A3011 RMK A01 T01230100  RH  086%=      5-min Rain = 0
KEA1 231905Z 01014KT 12/10 A3011 RMK A01 T01210099  RH  086%=      5-min Rain = 0
KEA1 231906Z 01014KT 12/10 A3011 RMK A01 T01190099  RH  087%=      5-min Rain = 0
KEA1 231907Z 01014KT 12/10 A3011 RMK A01 T01190099  RH  087%=      5-min Rain = 0
KEA1 231908Z 02014KT 12/10 A3011 RMK A01 T01180098  RH  088%=      5-min Rain = 0
KEA1 231909Z 02015KT 12/10 A3011 RMK A01 T01180099  RH  088%=      5-min Rain = 0
KEA1 231910Z 02014KT 12/10 A3011 RMK A01 T01190099  RH  088%=      5-min Rain = 0
KEA1 231911Z 02013KT 12/10 A3011 RMK A01 T01190099  RH  088%=      5-min Rain = 0
KEA1 231912Z 02014KT 12/10 A3011 RMK A01 T01200099  RH  087%=      5-min Rain = 0
KEA1 231913Z 02013KT 12/10 A3011 RMK A01 T01200099  RH  087%=      5-min Rain = 0
KEA1 231914Z 01014KT 12/10 A3011 RMK A01 T01200101  RH  088%=      5-min Rain = 0
KEA1 231915Z 02014KT 12/10 A3011 RMK A01 T01200098  RH  086%=      5-min Rain = 0
KEA1 231916Z 02014KT 12/10 A3011 RMK A01 T01210100  RH  087%=      5-min Rain = 0
KEA1 231917Z 02016KT 12/10 A3011 RMK A01 T01210099  RH  086%=      5-min Rain = 0
KEA1 231918Z 02013KT 12/10 A3011 RMK A01 T01200097  RH  086%=      5-min Rain = 0
KEA1 231919Z 01015KT 12/10 A3011 RMK A01 T01200098  RH  087%=      5-min Rain = 0
KEA1 231920Z 02015KT 12/10 A3011 RMK A01 T01200097  RH  086%=      5-min Rain = 0
KEA1 231921Z 01012KT 12/10 A3011 RMK A01 T01190098  RH  087%=      5-min Rain = 0
KEA1 231922Z 01013KT 12/10 A3011 RMK A01 T01200099  RH  087%=      5-min Rain = 0
KEA1 231923Z 02014KT 12/10 A3011 RMK A01 T01210099  RH  086%=      5-min Rain = 0
KEA1 231924Z 02013KT 12/10 A3011 RMK A01 T01210098  RH  086%=      5-min Rain = 0
KEA1 231925Z 03012KT 12/10 A3011 RMK A01 T01210100  RH  087%=      5-min Rain = 0
KEA1 231926Z 02011KT 12/10 A3011 RMK A01 T01220099  RH  086%=      5-min Rain = 0
KEA1 231927Z 02012KT 12/10 A3011 RMK A01 T01230099  RH  085%=      5-min Rain = 0
KEA1 231928Z 02012KT 12/10 A3011 RMK A01 T01230099  RH  086%=      5-min Rain = 0
KEA1 231929Z 02011KT 12/10 A3011 RMK A01 T01230098  RH  085%=      5-min Rain = 0
KEA1 231930Z 03012KT 12/10 A3011 RMK A01 T01230099  RH  086%=      5-min Rain = 0
KEA1 231931Z 03011KT 12/10 A3011 RMK A01 T01210097  RH  085%=      5-min Rain = 0
KEA1 231932Z 04012KT 12/10 A3011 RMK A01 T01200097  RH  086%=      5-min Rain = 0
KEA1 231933Z 04012KT 12/10 A3011 RMK A01 T01200098  RH  086%=      5-min Rain = 0
KEA1 231934Z 03011KT 12/10 A3011 RMK A01 T01200098  RH  086%=      5-min Rain = 0
KEA1 231935Z 03013KT 12/10 A3011 RMK A01 T01200097  RH  086%=      5-min Rain = 0
KEA1 231936Z 03013KT 12/10 A3011 RMK A01 T01200097  RH  086%=      5-min Rain = 0
KEA1 231937Z 02013KT 12/10 A3011 RMK A01 T01190096  RH  086%=      5-min Rain = 0
KEA1 231938Z 02012KT 12/10 A3011 RMK A01 T01190098  RH  087%=      5-min Rain = 0
KEA1 231939Z 02011KT 12/10 A3011 RMK A01 T01190097  RH  086%=      5-min Rain = 0
KEA1 231940Z 02013KT 12/10 A3011 RMK A01 T01190098  RH  087%=      5-min Rain = 0
KEA1 231941Z 02014KT 12/10 A3011 RMK A01 T01190097  RH  086%=      5-min Rain = 0
KEA1 231942Z 02013KT 12/10 A3011 RMK A01 T01180096  RH  086%=      5-min Rain = 0
KEA1 231943Z 01011KT 12/10 A3011 RMK A01 T01180098  RH  088%=      5-min Rain = 0
KEA1 231944Z 01012KT 12/10 A3011 RMK A01 T01200101  RH  088%=      5-min Rain = 0
KEA1 231945Z 02011KT 12/10 A3011 RMK A01 T01210098  RH  086%=      5-min Rain = 0
KEA1 231946Z 01010KT 12/10 A3011 RMK A01 T01210098  RH  086%=      5-min Rain = 0
KEA1 231947Z 01013KT 12/10 A3011 RMK A01 T01200098  RH  086%=      5-min Rain = 0
KEA1 231948Z 01013KT 12/10 A3011 RMK A01 T01200097  RH  086%=      5-min Rain = 0
KEA1 231949Z 02012KT 12/10 A3011 RMK A01 T01190095  RH  085%=      5-min Rain = 0
KEA1 231950Z 01012KT 12/09 A3011 RMK A01 T01180094  RH  085%=      5-min Rain = 0
KEA1 231951Z 02013KT 12/10 A3011 RMK A01 T01180095  RH  086%=      5-min Rain = 0
KEA1 231952Z 02012KT 12/10 A3011 RMK A01 T01180095  RH  086%=      5-min Rain = 0
KEA1 231953Z 01013KT 12/10 A3011 RMK A01 T01180095  RH  086%=      5-min Rain = 0
KEA1 231954Z 01013KT 12/10 A3011 RMK A01 T01180096  RH  086%=      5-min Rain = 0
KEA1 231955Z 02013KT 12/10 A3011 RMK A01 T01180095  RH  086%=      5-min Rain = 0
KEA1 231956Z 02013KT 12/10 A3011 RMK A01 T01180095  RH  086%=      5-min Rain = 0
KEA1 231957Z 02013KT 12/10 A301 RMK A01 T01190096  RH  086%=      5-min Rain = 0
KEA1 231958Z 02012KT 12/10 A3011 RMK A01 T01190095  RH  085%=      5-min Rain = 0
KEA1 231959Z 03012KT 12/10 A3011 RMK A01 T01200096  RH  085%=      5-min Rain = 0
KEA1 232000Z 03012KT 12/10 A3011 RMK A01 T01200097  RH  085%=      5-min Rain = 0
KEA1 232001Z 03012KT 12/10 A301 RMK A01 T01210096  RH  084%=      5-min Rain = 0
KEA1 232002Z 03013KT 12/10 A3011 RMK A01 T01220096  RH  084%=      5-min Rain = 0
KEA1 232003Z 02012KT 12/10 A3011 RMK A01 T01210095  RH  084%=      5-min Rain = 0
KEA1 232004Z 02013KT 12/10 A301 RMK A01 T01210096  RH  084%=      5-min Rain = 0
KEA1 232005Z 02012KT 12/09 A301 RMK A01 T01210094  RH  084%=      5-min Rain = 0
KEA1 232006Z 02013KT 12/10 A301 RMK A01 T01210095  RH  084%=      5-min Rain = 0
KEA1 232007Z 02012KT 12/10 A301 RMK A01 T01210095  RH  084%=      5-min Rain = 0
KEA1 232008Z 02013KT 12/10 A301 RMK A01 T01210096  RH  084%=      5-min Rain = 0
KEA1 232009Z 01012KT 12/10 A301 RMK A01 T01220096  RH  084%=      5-min Rain = 0
KEA1 232010Z 02011KT 12/10 A301 RMK A01 T01220097  RH  085%=      5-min Rain = 0
KEA1 232011Z 03013KT 12/10 A301 RMK A01 T01240100  RH  085%=      5-min Rain = 0
KEA1 232012Z 03012KT 13/10 A301 RMK A01 T01250097  RH  083%=      5-min Rain = 0
KEA1 232013Z 03012KT 12/10 A301 RMK A01 T01240097  RH  083%=      5-min Rain = 0
KEA1 232014Z 02013KT 12/10 A301 RMK A01 T01230095  RH  083%=      5-min Rain = 0
KEA1 232015Z 02014KT 12/10 A301 RMK A01 T01220095  RH  083%=      5-min Rain = 0
KEA1 232016Z 02013KT 12/10 A301 RMK A01 T01220095  RH  084%=      5-min Rain = 0
KEA1 232017Z 02012KT 12/10 A301 RMK A01 T01220096  RH  084%=      5-min Rain = 0
KEA1 232018Z 03012KT 12/10 A301 RMK A01 T01230096  RH  084%=      5-min Rain = 0
KEA1 232019Z 02012KT 12/10 A301 RMK A01 T01240096  RH  083%=      5-min Rain = 0
KEA1 232020Z 02010KT 13/10 A301 RMK A01 T01250097  RH  083%=      5-min Rain = 0
KEA1 232021Z 03013KT 13/10 A301 RMK A01 T01260098  RH  083%=      5-min Rain = 0
KEA1 232022Z 04013KT 13/10 A301 RMK A01 T01260096  RH  082%=      5-min Rain = 0
KEA1 232023Z 03011KT 13/10 A301 RMK A01 T01250097  RH  083%=      5-min Rain = 0
KEA1 232024Z 02012KT 13/10 A301 RMK A01 T01260097  RH  083%=      5-min Rain = 0
KEA1 232025Z 02012KT 13/10 A301 RMK A01 T01260095  RH  082%=      5-min Rain = 0
KEA1 232026Z 03014KT 13/10 A301 RMK A01 T01250096  RH  082%=      5-min Rain = 0
KEA1 232027Z 02013KT 12/10 A301 RMK A01 T01240096  RH  083%=      5-min Rain = 0
KEA1 232028Z 02013KT 12/10 A301 RMK A01 T01230097  RH  084%=      5-min Rain = 0
KEA1 232029Z 02014KT 12/10 A301 RMK A01 T01230095  RH  083%=      5-min Rain = 0
KEA1 232030Z 01013KT 12/10 A301 RMK A01 T01220095  RH  083%=      5-min Rain = 0
KEA1 232031Z 02014KT 12/09 A301 RMK A01 T01220094  RH  083%=      5-min Rain = 0
KEA1 232032Z 01014KT 12/10 A301 RMK A01 T01220095  RH  084%=      5-min Rain = 0
KEA1 232033Z 02012KT 12/10 A301 RMK A01 T01230096  RH  084%=      5-min Rain = 0
KEA1 232034Z 03012KT 12/10 A301 RMK A01 T01240098  RH  084%=      5-min Rain = 0
KEA1 232035Z 03013KT 13/10 A301 RMK A01 T01250095  RH  082%=      5-min Rain = 0
KEA1 232036Z 03011KT 12/10 A301 RMK A01 T01240095  RH  082%=      5-min Rain = 0
KEA1 232037Z 02011KT 12/10 A301 RMK A01 T01240097  RH  084%=      5-min Rain = 0
KEA1 232038Z 03014KT 13/10 A301 RMK A01 T01250097  RH  083%=      5-min Rain = 0
KEA1 232039Z 02013KT 13/10 A301 RMK A01 T01250096  RH  082%=      5-min Rain = 0
KEA1 232040Z 02013KT 13/10 A301 RMK A01 T01250096  RH  082%=      5-min Rain = 0
KEA1 232041Z 02013KT 13/10 A301 RMK A01 T01250095  RH  082%=      5-min Rain = 0
KEA1 232042Z 01013KT 13/10 A301 RMK A01 T01260095  RH  081%=      5-min Rain = 0
KEA1 232043Z 02013KT 13/10 A301 RMK A01 T01250096  RH  083%=      5-min Rain = 0
KEA1 232044Z 02013KT 13/10 A301 RMK A01 T01250097  RH  083%=      5-min Rain = 0
KEA1 232045Z 03015KT 12/10 A3009 RMK A01 T01240096  RH  083%=      5-min Rain = 0
KEA1 232046Z 02014KT 12/10 A3009 RMK A01 T01220095  RH  084%=      5-min Rain = 0
KEA1 232047Z 02011KT 12/10 A301 RMK A01 T01230097  RH  084%=      5-min Rain = 0
KEA1 232048Z 02014KT 12/10 A301 RMK A01 T01240097  RH  084%=      5-min Rain = 0
KEA1 232049Z 02014KT 12/10 A3009 RMK A01 T01240095  RH  082%=      5-min Rain = 0
KEA1 232050Z 01012KT 12/10 A3009 RMK A01 T01230095  RH  083%=      5-min Rain = 0
KEA1 232051Z 01013KT 12/10 A3009 RMK A01 T01230095  RH  083%=      5-min Rain = 0
KEA1 232052Z 02013KT 12/10 A3009 RMK A01 T01230096  RH  083%=      5-min Rain = 0
KEA1 232053Z 02013KT 12/10 A3009 RMK A01 T01240095  RH  083%=      5-min Rain = 0
KEA1 232054Z 02011KT 12/10 A3009 RMK A01 T01230096  RH  083%=      5-min Rain = 0
KEA1 232055Z 01011KT 12/10 A3009 RMK A01 T01240097  RH  084%=      5-min Rain = 0
KEA1 232056Z 01011KT 13/10 A3009 RMK A01 T01250097  RH  083%=      5-min Rain = 0
KEA1 232057Z 02011KT 13/10 A3009 RMK A01 T01260098  RH  083%=      5-min Rain = 0
KEA1 232058Z 02013KT 13/10 A3009 RMK A01 T01270098  RH  083%=      5-min Rain = 0
KEA1 232059Z 03012KT 13/10 A3009 RMK A01 T01260095  RH  081%=      5-min Rain = 0
KEA1 232100Z 03012KT 12/10 A3009 RMK A01 T01240095  RH  083%=      5-min Rain = 0
KEA1 232101Z 02011KT 12/10 A3009 RMK A01 T01240096  RH  083%=      5-min Rain = 0
KEA1 232102Z 02010KT 13/10 A3009 RMK A01 T01250097  RH  083%=      5-min Rain = 0
KEA1 232103Z 04012KT 13/10 A3009 RMK A01 T01270098  RH  082%=      5-min Rain = 0
KEA1 232104Z 03011KT 13/10 A3009 RMK A01 T01270096  RH  082%=      5-min Rain = 0
KEA1 232105Z 03012KT 13/10 A3009 RMK A01 T01260097  RH  083%=      5-min Rain = 0
KEA1 232106Z 03013KT 13/10 A3009 RMK A01 T01270097  RH  082%=      5-min Rain = 0
KEA1 232107Z 03011KT 13/10 A3009 RMK A01 T01270097  RH  082%=      5-min Rain = 0
KEA1 232108Z 02013KT 13/10 A3009 RMK A01 T01280099  RH  082%=      5-min Rain = 0
KEA1 232109Z 01011KT 13/10 A3009 RMK A01 T01280097  RH  082%=      5-min Rain = 0
KEA1 232110Z 02012KT 13/10 A3009 RMK A01 T01280097  RH  082%=      5-min Rain = 0
KEA1 232111Z 02012KT 13/10 A3009 RMK A01 T01280097  RH  081%=      5-min Rain = 0
KEA1 232112Z 02014KT 13/10 A3009 RMK A01 T01280096  RH  081%=      5-min Rain = 0
KEA1 232113Z 01013KT 13/10 A3009 RMK A01 T01280095  RH  080%=      5-min Rain = 0
KEA1 232114Z 03013KT 13/10 A3009 RMK A01 T01270096  RH  081%=      5-min Rain = 0
KEA1 232115Z 03011KT 13/10 A3009 RMK A01 T01270095  RH  081%=      5-min Rain = 0
KEA1 232116Z 03012KT 13/10 A3009 RMK A01 T01270095  RH  081%=      5-min Rain = 0
KEA1 232117Z 03013KT 13/10 A3009 RMK A01 T01270095  RH  081%=      5-min Rain = 0
KEA1 232118Z 03012KT 13/09 A3009 RMK A01 T01270094  RH  081%=      5-min Rain = 0
KEA1 232119Z 02012KT 13/10 A3009 RMK A01 T01270097  RH  082%=      5-min Rain = 0
KEA1 232120Z 02012KT 13/10 A3009 RMK A01 T01290096  RH  081%=      5-min Rain = 0
KEA1 232121Z 03014KT 13/10 A3008 RMK A01 T01300095  RH  079%=      5-min Rain = 0
KEA1 232122Z 03014KT 13/09 A3008 RMK A01 T01290094  RH  079%=      5-min Rain = 0
KEA1 232123Z 03012KT 13/10 A3009 RMK A01 T01290095  RH  080%=      5-min Rain = 0
KEA1 232124Z 03012KT 13/09 A3009 RMK A01 T01280093  RH  079%=      5-min Rain = 0
KEA1 232125Z 02012KT 13/09 A3009 RMK A01 T01280094  RH  080%=      5-min Rain = 0
KEA1 232126Z 03011KT 13/09 A3009 RMK A01 T01290094  RH  080%=      5-min Rain = 0
KEA1 232127Z 03012KT 13/10 A3008 RMK A01 T01300096  RH  080%=      5-min Rain = 0
KEA1 232128Z 03012KT 13/10 A3008 RMK A01 T01310095  RH  079%=      5-min Rain = 0
KEA1 232129Z 02012KT 13/09 A3008 RMK A01 T01300094  RH  079%=      5-min Rain = 0
KEA1 232130Z 03011KT 13/09 A3008 RMK A01 T01290093  RH  079%=      5-min Rain = 0
KEA1 232131Z 03012KT 13/10 A3008 RMK A01 T01290096  RH  080%=      5-min Rain = 0
KEA1 232132Z 01013KT 13/09 A3008 RMK A01 T01300094  RH  079%=      5-min Rain = 0
KEA1 232133Z 02011KT 13/09 A3008 RMK A01 T01300093  RH  078%=      5-min Rain = 0
KEA1 232134Z 03012KT 13/09 A3008 RMK A01 T01300093  RH  078%=      5-min Rain = 0
KEA1 232135Z 02012KT 13/09 A3008 RMK A01 T01290094  RH  079%=      5-min Rain = 0
KEA1 232136Z 02010KT 13/09 A3008 RMK A01 T01290093  RH  079%=      5-min Rain = 0
KEA1 232137Z 02012KT 13/09 A3008 RMK A01 T01290094  RH  079%=      5-min Rain = 0
KEA1 232138Z 02012KT 13/09 A3008 RMK A01 T01290094  RH  079%=      5-min Rain = 0
KEA1 232139Z 02010KT 13/09 A3008 RMK A01 T01290094  RH  079%=      5-min Rain = 0
KEA1 232140Z 02011KT 13/10 A3008 RMK A01 T01290096  RH  080%=      5-min Rain = 0
KEA1 232141Z 02011KT 13/10 A3008 RMK A01 T01290095  RH  080%=      5-min Rain = 0
KEA1 232142Z 02012KT 13/09 A3008 RMK A01 T01290094  RH  079%=      5-min Rain = 0
KEA1 232143Z 01012KT 13/09 A3008 RMK A01 T01290094  RH  079%=      5-min Rain = 0
KEA1 232144Z 02011KT 13/10 A3008 RMK A01 T01290096  RH  080%=      5-min Rain = 0
KEA1 232145Z 02012KT 13/10 A3008 RMK A01 T01300097  RH  080%=      5-min Rain = 0
KEA1 232146Z 02010KT 13/10 A3008 RMK A01 T01300095  RH  079%=      5-min Rain = 0
KEA1 232147Z 02010KT 13/10 A3008 RMK A01 T01290095  RH  080%=      5-min Rain = 0
KEA1 232148Z 03011KT 13/10 A3008 RMK A01 T01280095  RH  080%=      5-min Rain = 0
KEA1 232149Z 02011KT 13/10 A3008 RMK A01 T01280095  RH  080%=      5-min Rain = 0
KEA1 232150Z 02011KT 13/09 A3008 RMK A01 T01280094  RH  080%=      5-min Rain = 0
KEA1 232151Z 02011KT 13/09 A3008 RMK A01 T01270093  RH  080%=      5-min Rain = 0
KEA1 232152Z 02012KT 13/09 A3008 RMK A01 T01270094  RH  080%=      5-min Rain = 0
KEA1 232153Z 02011KT 13/09 A3008 RMK A01 T01270094  RH  080%=      5-min Rain = 0
KEA1 232154Z 03011KT 13/10 A3008 RMK A01 T01270095  RH  081%=      5-min Rain = 0
KEA1 232155Z 02011KT 13/09 A3008 RMK A01 T01280094  RH  080%=      5-min Rain = 0
KEA1 232156Z 03014KT 13/10 A3008 RMK A01 T01280095  RH  080%=      5-min Rain = 0
KEA1 232157Z 03011KT 13/09 A3008 RMK A01 T01280093  RH  079%=      5-min Rain = 0
KEA1 232158Z 01011KT 13/09 A3008 RMK A01 T01270093  RH  080%=      5-min Rain = 0
KEA1 232159Z 01011KT 13/09 A3008 RMK A01 T01270093  RH  080%=      5-min Rain = 0
KEA1 232200Z 03011KT 13/09 A3008 RMK A01 T01270094  RH  080%=      5-min Rain = 0
KEA1 232201Z 03013KT 13/09 A3008 RMK A01 T01280093  RH  079%=      5-min Rain = 0
KEA1 232202Z 03012KT 13/09 A3008 RMK A01 T01270091  RH  079%=      5-min Rain = 0
KEA1 232203Z 03012KT 13/09 A3008 RMK A01 T01260091  RH  079%=      5-min Rain = 0
KEA1 232204Z 02011KT 13/09 A3008 RMK A01 T01260092  RH  080%=      5-min Rain = 0
KEA1 232205Z 02013KT 13/09 A3008 RMK A01 T01260092  RH  080%=      5-min Rain = 0
KEA1 232206Z 02012KT 13/09 A3008 RMK A01 T01270092  RH  080%=      5-min Rain = 0
KEA1 232207Z 02012KT 13/09 A3008 RMK A01 T01270093  RH  079%=      5-min Rain = 0
KEA1 232208Z 02011KT 13/09 A3008 RMK A01 T01270093  RH  079%=      5-min Rain = 0
KEA1 232209Z 03011KT 13/09 A3008 RMK A01 T01270093  RH  080%=      5-min Rain = 0
KEA1 232210Z 03012KT 13/09 A3008 RMK A01 T01270092  RH  080%=      5-min Rain = 0
KEA1 232211Z 02011KT 13/09 A3008 RMK A01 T01270092  RH  079%=      5-min Rain = 0
KEA1 232212Z 02010KT 13/09 A3008 RMK A01 T01260091  RH  079%=      5-min Rain = 0
KEA1 232213Z 02013KT 13/09 A3008 RMK A01 T01270093  RH  080%=      5-min Rain = 0
KEA1 232214Z 02012KT 13/09 A3008 RMK A01 T01270094  RH  080%=      5-min Rain = 0
KEA1 232215Z 02012KT 13/09 A3008 RMK A01 T01270094  RH  081%=      5-min Rain = 0
KEA1 232216Z 02013KT 13/09 A3008 RMK A01 T01270093  RH  080%=      5-min Rain = 0
KEA1 232217Z 02013KT 13/09 A3008 RMK A01 T01270094  RH  080%=      5-min Rain = 0
KEA1 232218Z 01011KT 13/09 A3008 RMK A01 T01270094  RH  080%=      5-min Rain = 0
KEA1 232219Z 01011KT 13/10 A3008 RMK A01 T01270095  RH  081%=      5-min Rain = 0
KEA1 232220Z 02011KT 13/10 A3008 RMK A01 T01270096  RH  081%=      5-min Rain = 0
KEA1 232221Z 01010KT 13/10 A3008 RMK A01 T01280095  RH  080%=      5-min Rain = 0
KEA1 232222Z 01010KT 13/09 A3008 RMK A01 T01270093  RH  080%=      5-min Rain = 0
KEA1 232223Z 02010KT 13/09 A3008 RMK A01 T01260094  RH  081%=      5-min Rain = 0
KEA1 232224Z 02010KT 13/10 A3008 RMK A01 T01270095  RH  081%=      5-min Rain = 0
KEA1 232225Z 01012KT 13/10 A3008 RMK A01 T01270095  RH  081%=      5-min Rain = 0
KEA1 232226Z 00011KT 13/09 A3008 RMK A01 T01260093  RH  080%=      5-min Rain = 0
KEA1 232227Z 01010KT 13/10 A3008 RMK A01 T01260095  RH  081%=      5-min Rain = 0
KEA1 232228Z 01013KT 13/09 A3008 RMK A01 T01260094  RH  080%=      5-min Rain = 0
KEA1 232229Z 00011KT 13/09 A3008 RMK A01 T01260093  RH  080%=      5-min Rain = 0
KEA1 232230Z 01013KT 13/09 A3008 RMK A01 T01260093  RH  080%=      5-min Rain = 0
KEA1 232231Z 01014KT 13/09 A3008 RMK A01 T01250092  RH  080%=      5-min Rain = 0
KEA1 232232Z 01014KT 13/09 A3008 RMK A01 T01250091  RH  080%=      5-min Rain = 0
KEA1 232233Z 01013KT 13/09 A3008 RMK A01 T01250092  RH  080%=      5-min Rain = 0
KEA1 232234Z 01012KT 13/09 A3008 RMK A01 T01250092  RH  080%=      5-min Rain = 0
KEA1 232235Z 00013KT 13/09 A3007 RMK A01 T01250092  RH  080%=      5-min Rain = 0
KEA1 232236Z 01012KT 13/09 A3008 RMK A01 T01250092  RH  080%=      5-min Rain = 0
KEA1 232237Z 02010KT 13/09 A3008 RMK A01 T01260093  RH  080%=      5-min Rain = 0
KEA1 232238Z 01011KT 13/09 A3008 RMK A01 T01270094  RH  080%=      5-min Rain = 0
KEA1 232239Z 01011KT 13/09 A3008 RMK A01 T01280093  RH  079%=      5-min Rain = 0
KEA1 232240Z 01012KT 13/09 A3008 RMK A01 T01280093  RH  079%=      5-min Rain = 0
KEA1 232241Z 00010KT 13/09 A3008 RMK A01 T01280094  RH  080%=      5-min Rain = 0
KEA1 232242Z 00011KT 13/09 A3008 RMK A01 T01280093  RH  079%=      5-min Rain = 0
KEA1 232243Z 01012KT 13/09 A3008 RMK A01 T01280093  RH  079%=      5-min Rain = 0
KEA1 232244Z 01012KT 13/09 A3008 RMK A01 T01280093  RH  079%=      5-min Rain = 0
KEA1 232245Z 01009KT 13/09 A3008 RMK A01 T01280092  RH  079%=      5-min Rain = 0
KEA1 232246Z 01012KT 13/10 A3008 RMK A01 T01290095  RH  080%=      5-min Rain = 0
KEA1 232247Z 01011KT 13/09 A3008 RMK A01 T01280092  RH  078%=      5-min Rain = 0
KEA1 232248Z 01012KT 13/09 A3008 RMK A01 T01280093  RH  079%=      5-min Rain = 0
KEA1 232249Z 00010KT 13/09 A3008 RMK A01 T01280093  RH  079%=      5-min Rain = 0
KEA1 232250Z 01012KT 13/09 A3008 RMK A01 T01280093  RH  079%=      5-min Rain = 0
KEA1 232251Z 02012KT 13/09 A3008 RMK A01 T01280093  RH  079%=      5-min Rain = 0
KEA1 232252Z 02011KT 13/09 A3008 RMK A01 T01280092  RH  078%=      5-min Rain = 0
KEA1 232253Z 01012KT 13/09 A3008 RMK A01 T01270091  RH  079%=      5-min Rain = 0
KEA1 232254Z 01010KT 13/09 A3008 RMK A01 T01270091  RH  079%=      5-min Rain = 0
KEA1 232255Z 00012KT 13/09 A3008 RMK A01 T01270092  RH  079%=      5-min Rain = 0
KEA1 232256Z 01012KT 13/09 A3008 RMK A01 T01270092  RH  079%=      5-min Rain = 0
KEA1 232257Z 01012KT 13/09 A3008 RMK A01 T01280092  RH  079%=      5-min Rain = 0
KEA1 232258Z 00012KT 13/09 A3008 RMK A01 T01270092  RH  079%=      5-min Rain = 0
KEA1 232259Z 36012KT 13/09 A3008 RMK A01 T01280094  RH  080%=      5-min Rain = 0
KEA1 232300Z 36014KT 13/09 A3008 RMK A01 T01290092  RH  078%=      5-min Rain = 0
KEA1 232301Z 00013KT 13/09 A3007 RMK A01 T01280091  RH  078%=      5-min Rain = 0
KEA1 232302Z 01012KT 13/09 A3007 RMK A01 T01280091  RH  078%=      5-min Rain = 0
KEA1 232303Z 01012KT 13/09 A3007 RMK A01 T01270092  RH  079%=      5-min Rain = 0
KEA1 232304Z 00011KT 13/09 A3007 RMK A01 T01280092  RH  079%=      5-min Rain = 0
KEA1 232305Z 00013KT 13/09 A3007 RMK A01 T01280093  RH  079%=      5-min Rain = 0
KEA1 232306Z 01013KT 13/09 A3007 RMK A01 T01290091  RH  078%=      5-min Rain = 0
KEA1 232307Z 00013KT 13/09 A3007 RMK A01 T01280090  RH  078%=      5-min Rain = 0
KEA1 232308Z 36012KT 13/09 A3007 RMK A01 T01280090  RH  078%=      5-min Rain = 0
KEA1 232309Z 35013KT 13/09 A3007 RMK A01 T01270090  RH  078%=      5-min Rain = 0
KEA1 232310Z 36012KT 13/09 A3007 RMK A01 T01260090  RH  079%=      5-min Rain = 0
KEA1 232311Z 01012KT 13/09 A3007 RMK A01 T01260092  RH  080%=      5-min Rain = 0
KEA1 232312Z 00010KT 13/09 A3007 RMK A01 T01270093  RH  080%=      5-min Rain = 0
KEA1 232313Z 36014KT 13/09 A3007 RMK A01 T01270092  RH  079%=      5-min Rain = 0
KEA1 232314Z 00012KT 13/09 A3007 RMK A01 T01260090  RH  079%=      5-min Rain = 0
KEA1 232315Z 00011KT 13/09 A3007 RMK A01 T01260091  RH  080%=      5-min Rain = 0
KEA1 232316Z 01013KT 13/09 A3007 RMK A01 T01260092  RH  079%=      5-min Rain = 0
KEA1 232317Z 00013KT 13/09 A3007 RMK A01 T01260089  RH  078%=      5-min Rain = 0
KEA1 232318Z 00012KT 13/09 A3007 RMK A01 T01250090  RH  079%=      5-min Rain = 0
KEA1 232319Z 00011KT 13/09 A3007 RMK A01 T01260091  RH  079%=      5-min Rain = 0
KEA1 232320Z 01011KT 13/09 A3007 RMK A01 T01260090  RH  079%=      5-min Rain = 0
KEA1 232321Z 01010KT 13/09 A3007 RMK A01 T01260091  RH  079%=      5-min Rain = 0
KEA1 232322Z 01010KT 13/09 A3008 RMK A01 T01270093  RH  080%=      5-min Rain = 0
KEA1 232323Z 01011KT 13/09 A3007 RMK A01 T01270091  RH  079%=      5-min Rain = 0
KEA1 232324Z 01010KT 13/09 A3008 RMK A01 T01270091  RH  079%=      5-min Rain = 0
KEA1 232325Z 01011KT 13/09 A3008 RMK A01 T01270091  RH  079%=      5-min Rain = 0
KEA1 232326Z 00010KT 13/09 A3008 RMK A01 T01270091  RH  079%=      5-min Rain = 0
KEA1 232327Z 01009KT 13/09 A3008 RMK A01 T01270090  RH  078%=      5-min Rain = 0
KEA1 232328Z 01011KT 13/09 A3008 RMK A01 T01260090  RH  079%=      5-min Rain = 0
KEA1 232329Z 02010KT 13/09 A3007 RMK A01 T01260091  RH  079%=      5-min Rain = 0
KEA1 232330Z 03009KT 13/09 A3007 RMK A01 T01260091  RH  079%=      5-min Rain = 0
KEA1 232331Z 02010KT 13/09 A3007 RMK A01 T01270093  RH  080%=      5-min Rain = 0
KEA1 232332Z 02011KT 13/09 A3007 RMK A01 T01270092  RH  079%=      5-min Rain = 0
KEA1 232333Z 01011KT 13/09 A3007 RMK A01 T01270093  RH  080%=      5-min Rain = 0
KEA1 232334Z 01011KT 13/09 A3007 RMK A01 T01280092  RH  078%=      5-min Rain = 0
KEA1 232335Z 01010KT 13/09 A3007 RMK A01 T01280092  RH  079%=      5-min Rain = 0
KEA1 232336Z 01010KT 13/09 A3007 RMK A01 T01290093  RH  079%=      5-min Rain = 0
KEA1 232337Z 02010KT 13/09 A3007 RMK A01 T01290092  RH  078%=      5-min Rain = 0
KEA1 232338Z 02011KT 13/09 A3007 RMK A01 T01290093  RH  078%=      5-min Rain = 0
KEA1 232339Z 02012KT 13/09 A3007 RMK A01 T01300092  RH  078%=      5-min Rain = 0
KEA1 232340Z 02012KT 13/09 A3007 RMK A01 T01300091  RH  077%=      5-min Rain = 0
KEA1 232341Z 03009KT 13/09 A3007 RMK A01 T01290090  RH  077%=      5-min Rain = 0
KEA1 232342Z 02009KT 13/09 A3007 RMK A01 T01290092  RH  078%=      5-min Rain = 0
KEA1 232343Z 02011KT 13/09 A3007 RMK A01 T01290091  RH  078%=      5-min Rain = 0
KEA1 232344Z 02011KT 13/09 A3007 RMK A01 T01300090  RH  077%=      5-min Rain = 0
KEA1 232345Z 02012KT 13/09 A3007 RMK A01 T01300090  RH  076%=      5-min Rain = 0
KEA1 232346Z 02009KT 13/09 A3007 RMK A01 T01310090  RH  076%=      5-min Rain = 0
KEA1 232347Z 02009KT 13/09 A3007 RMK A01 T01310091  RH  076%=      5-min Rain = 0
KEA1 232348Z 02008KT 13/09 A3007 RMK A01 T01320092  RH  077%=      5-min Rain = 0
KEA1 232349Z 02009KT 13/09 A3007 RMK A01 T01340094  RH  077%=      5-min Rain = 0
KEA1 232350Z 03010KT 14/09 A3007 RMK A01 T01350091  RH  075%=      5-min Rain = 0
KEA1 232351Z 03011KT 14/09 A3007 RMK A01 T01350093  RH  075%=      5-min Rain = 0
KEA1 232352Z 02011KT 14/09 A3007 RMK A01 T01360092  RH  075%=      5-min Rain = 0
KEA1 232353Z 03011KT 14/09 A3007 RMK A01 T01350090  RH  074%=      5-min Rain = 0
KEA1 232354Z 02011KT 13/09 A3007 RMK A01 T01340090  RH  074%=      5-min Rain = 0
KEA1 232355Z 02011KT 13/09 A3007 RMK A01 T01340090  RH  075%=      5-min Rain = 0
KEA1 232356Z 02011KT 14/09 A3007 RMK A01 T01350091  RH  075%=      5-min Rain = 0
KEA1 232357Z 00011KT 14/09 A3007 RMK A01 T01350093  RH  075%=      5-min Rain = 0
KEA1 232358Z 36011KT 14/09 A3007 RMK A01 T01360092  RH  075%=      5-min Rain = 0
KEA1 232359Z 35012KT 14/09 A3007 RMK A01 T01360092  RH  075%=      5-min Rain = 0
KEA1 240000Z 36011KT 13/09 A3007 RMK A01 T01340090  RH  075%=      5-min Rain = 0
KEA1 240001Z 00012KT 13/09 A3007 RMK A01 T01330091  RH  076%=      5-min Rain = 0
KEA1 240002Z 01013KT 13/09 A3007 RMK A01 T01320090  RH  076%=      5-min Rain = 0
KEA1 240003Z 01011KT 13/09 A3007 RMK A01 T01320090  RH  076%=      5-min Rain = 0
KEA1 240004Z 01008KT 13/09 A3007 RMK A01 T01310092  RH  077%=      5-min Rain = 0
KEA1 240005Z 01014KT 13/09 A3007 RMK A01 T01310091  RH  076%=      5-min Rain = 0
KEA1 240006Z 01013KT 13/09 A3007 RMK A01 T01310089  RH  076%=      5-min Rain = 0
KEA1 240007Z 01015KT 13/09 A3007 RMK A01 T01300089  RH  076%=      5-min Rain = 0
KEA1 240008Z 01012KT 13/09 A3007 RMK A01 T01290089  RH  076%=      5-min Rain = 0
KEA1 240009Z 01011KT 13/09 A3007 RMK A01 T01290090  RH  077%=      5-min Rain = 0
KEA1 240010Z 01014KT 13/09 A3007 RMK A01 T01290089  RH  077%=      5-min Rain = 0
KEA1 240011Z 01014KT 13/09 A3007 RMK A01 T01290088  RH  076%=      5-min Rain = 0
KEA1 240012Z 01012KT 13/09 A3007 RMK A01 T01290088  RH  076%=      5-min Rain = 0
KEA1 240013Z 01013KT 13/09 A3007 RMK A01 T01280088  RH  077%=      5-min Rain = 0
KEA1 240014Z 01012KT 13/09 A3007 RMK A01 T01290089  RH  077%=      5-min Rain = 0
KEA1 240015Z 00012KT 13/09 A3007 RMK A01 T01300088  RH  076%=      5-min Rain = 0
KEA1 240016Z 00014KT 13/09 A3007 RMK A01 T01300089  RH  076%=      5-min Rain = 0
KEA1 240017Z 36013KT 13/09 A3006 RMK A01 T01290087  RH  076%=      5-min Rain = 0
KEA1 240018Z 36013KT 13/09 A3006 RMK A01 T01280088  RH  076%=      5-min Rain = 0
KEA1 240019Z 00013KT 13/09 A3006 RMK A01 T01280087  RH  076%=      5-min Rain = 0
KEA1 240020Z 01010KT 13/09 A3006 RMK A01 T01280089  RH  077%=      5-min Rain = 0
KEA1 240021Z 01010KT 13/09 A3006 RMK A01 T01270089  RH  078%=      5-min Rain = 0
KEA1 240022Z 01011KT 13/09 A3006 RMK A01 T01270089  RH  078%=      5-min Rain = 0
KEA1 240023Z 00011KT 13/09 A3006 RMK A01 T01270090  RH  078%=      5-min Rain = 0
KEA1 240024Z 01011KT 13/09 A3006 RMK A01 T01270089  RH  078%=      5-min Rain = 0
KEA1 240025Z 01011KT 13/09 A3006 RMK A01 T01270088  RH  077%=      5-min Rain = 0
KEA1 240026Z 00013KT 13/09 A3006 RMK A01 T01260088  RH  077%=      5-min Rain = 0
KEA1 240027Z 00013KT 13/09 A3006 RMK A01 T01260088  RH  078%=      5-min Rain = 0
KEA1 240028Z 01012KT 13/09 A3006 RMK A01 T01260089  RH  078%=      5-min Rain = 0
KEA1 240029Z 01012KT 13/09 A3006 RMK A01 T01260089  RH  078%=      5-min Rain = 0
KEA1 240030Z 01012KT 13/09 A3006 RMK A01 T01260089  RH  078%=      5-min Rain = 0
KEA1 240031Z 01013KT 13/09 A3006 RMK A01 T01260088  RH  078%=      5-min Rain = 0
KEA1 240032Z 01012KT 13/09 A3006 RMK A01 T01260088  RH  078%=      5-min Rain = 0
KEA1 240033Z 01013KT 13/09 A3006 RMK A01 T01260088  RH  078%=      5-min Rain = 0
KEA1 240034Z 02012KT 13/09 A3006 RMK A01 T01260088  RH  078%=      5-min Rain = 0
KEA1 240035Z 02013KT 13/09 A3006 RMK A01 T01260088  RH  078%=      5-min Rain = 0
KEA1 240036Z 02012KT 13/09 A3006 RMK A01 T01260088  RH  078%=      5-min Rain = 0
KEA1 240037Z 02013KT 13/09 A3006 RMK A01 T01260088  RH  078%=      5-min Rain = 0
KEA1 240038Z 02011KT 13/09 A3006 RMK A01 T01260089  RH  078%=      5-min Rain = 0
KEA1 240039Z 02013KT 13/09 A3006 RMK A01 T01260089  RH  078%=      5-min Rain = 0
KEA1 240040Z 02013KT 13/09 A3006 RMK A01 T01260089  RH  078%=      5-min Rain = 0
KEA1 240041Z 02011KT 13/09 A3006 RMK A01 T01260089  RH  078%=      5-min Rain = 0
KEA1 240042Z 01012KT 13/09 A3006 RMK A01 T01260089  RH  078%=      5-min Rain = 0
KEA1 240043Z 01014KT 13/09 A3006 RMK A01 T01260089  RH  078%=      5-min Rain = 0
KEA1 240044Z 01014KT 13/09 A3006 RMK A01 T01260088  RH  078%=      5-min Rain = 0
KEA1 240045Z 01012KT 13/09 A3006 RMK A01 T01260088  RH  078%=      5-min Rain = 0
KEA1 240046Z 01010KT 13/09 A3006 RMK A01 T01260089  RH  078%=      5-min Rain = 0
KEA1 240047Z 01012KT 13/09 A3006 RMK A01 T01260090  RH  078%=      5-min Rain = 0
KEA1 240048Z 01013KT 13/09 A3006 RMK A01 T01260089  RH  078%=      5-min Rain = 0
KEA1 240049Z 01012KT 13/09 A3006 RMK A01 T01260089  RH  078%=      5-min Rain = 0
KEA1 240050Z 01012KT 13/09 A3006 RMK A01 T01260089  RH  078%=      5-min Rain = 0
KEA1 240051Z 01011KT 13/09 A3006 RMK A01 T01260090  RH  078%=      5-min Rain = 0
KEA1 240052Z 01010KT 13/09 A3006 RMK A01 T01270091  RH  079%=      5-min Rain = 0
KEA1 240053Z 01012KT 13/09 A3006 RMK A01 T01260090  RH  079%=      5-min Rain = 0
KEA1 240054Z 01011KT 13/09 A3006 RMK A01 T01260090  RH  079%=      5-min Rain = 0
KEA1 240055Z 01012KT 13/09 A3006 RMK A01 T01260090  RH  079%=      5-min Rain = 0
KEA1 240056Z 01013KT 13/09 A3006 RMK A01 T01260090  RH  079%=      5-min Rain = 0
KEA1 240057Z 01012KT 13/09 A3006 RMK A01 T01260089  RH  079%=      5-min Rain = 0
KEA1 240058Z 01011KT 13/09 A3006 RMK A01 T01250090  RH  079%=      5-min Rain = 0
KEA1 240059Z 01012KT 13/09 A3006 RMK A01 T01250089  RH  079%=      5-min Rain = 0
KEA1 240100Z 01011KT 12/09 A3006 RMK A01 T01240088  RH  079%=      5-min Rain = 0
KEA1 240101Z 02011KT 12/09 A3006 RMK A01 T01240089  RH  079%=      5-min Rain = 0
KEA1 240102Z 01012KT 12/09 A3006 RMK A01 T01240089  RH  079%=      5-min Rain = 0
KEA1 240103Z 02011KT 12/09 A3006 RMK A01 T01240089  RH  079%=      5-min Rain = 0
KEA1 240104Z 02010KT 12/09 A3006 RMK A01 T01230089  RH  080%=      5-min Rain = 0
KEA1 240105Z 02009KT 12/09 A3006 RMK A01 T01220089  RH  080%=      5-min Rain = 0
KEA1 240106Z 02009KT 12/09 A3006 RMK A01 T01220089  RH  080%=      5-min Rain = 0
KEA1 240107Z 02009KT 12/09 A3006 RMK A01 T01210089  RH  081%=      5-min Rain = 0
KEA1 240108Z 01010KT 12/09 A3006 RMK A01 T01200088  RH  081%=      5-min Rain = 0
KEA1 240109Z 01009KT 12/09 A3006 RMK A01 T01200088  RH  081%=      5-min Rain = 0
KEA1 240110Z 01010KT 12/09 A3007 RMK A01 T01200088  RH  081%=      5-min Rain = 0
KEA1 240111Z 01010KT 12/09 A3007 RMK A01 T01190088  RH  081%=      5-min Rain = 0
KEA1 240112Z 01010KT 12/09 A3007 RMK A01 T01190088  RH  081%=      5-min Rain = 0
KEA1 240113Z 01009KT 12/09 A3007 RMK A01 T01190087  RH  081%=      5-min Rain = 0
KEA1 240114Z 02009KT 12/09 A3007 RMK A01 T01180087  RH  081%=      5-min Rain = 0
KEA1 240115Z 01009KT 12/09 A3007 RMK A01 T01180087  RH  082%=      5-min Rain = 0
KEA1 240116Z 01009KT 12/09 A3007 RMK A01 T01170087  RH  082%=      5-min Rain = 0
KEA1 240117Z 01008KT 12/09 A3007 RMK A01 T01160087  RH  082%=      5-min Rain = 0
KEA1 240118Z 01008KT 12/09 A3007 RMK A01 T01150086  RH  082%=      5-min Rain = 0
KEA1 240119Z 01008KT 12/09 A3007 RMK A01 T01150087  RH  083%=      5-min Rain = 0
KEA1 240120Z 01007KT 11/09 A3007 RMK A01 T01140086  RH  083%=      5-min Rain = 0
KEA1 240121Z 01006KT 11/09 A3007 RMK A01 T01140086  RH  083%=      5-min Rain = 0
KEA1 240122Z 01007KT 11/09 A3007 RMK A01 T01130086  RH  083%=      5-min Rain = 0
KEA1 240123Z 01008KT 11/09 A3007 RMK A01 T01120085  RH  083%=      5-min Rain = 0
KEA1 240124Z 01007KT 11/09 A3007 RMK A01 T01120085  RH  084%=      5-min Rain = 0
KEA1 240125Z 02008KT 11/09 A3007 RMK A01 T01120085  RH  084%=      5-min Rain = 0
KEA1 240126Z 02007KT 11/09 A3007 RMK A01 T01110085  RH  084%=      5-min Rain = 0
KEA1 240127Z 02007KT 11/09 A3007 RMK A01 T01110085  RH  084%=      5-min Rain = 0
KEA1 240128Z 02007KT 11/09 A3007 RMK A01 T01100085  RH  084%=      5-min Rain = 0
KEA1 240129Z 01007KT 11/08 A3007 RMK A01 T01090084  RH  085%=      5-min Rain = 0
KEA1 240130Z 01007KT 11/08 A3007 RMK A01 T01080084  RH  085%=      5-min Rain = 0
KEA1 240131Z 01007KT 11/08 A3007 RMK A01 T01080084  RH  085%=      5-min Rain = 0
KEA1 240132Z 01007KT 11/08 A3007 RMK A01 T01070084  RH  085%=      5-min Rain = 0
KEA1 240133Z 01007KT 11/08 A3007 RMK A01 T01070084  RH  086%=      5-min Rain = 0
KEA1 240134Z 01007KT 11/08 A3007 RMK A01 T01070084  RH  086%=      5-min Rain = 0
KEA1 240135Z 01007KT 11/08 A3007 RMK A01 T01060084  RH  086%=      5-min Rain = 0
KEA1 240136Z 01007KT 11/08 A3007 RMK A01 T01050083  RH  086%=      5-min Rain = 0
KEA1 240137Z 01007KT 10/08 A3007 RMK A01 T01040083  RH  087%=      5-min Rain = 0
KEA1 240138Z 01007KT 10/08 A3007 RMK A01 T01040083  RH  087%=      5-min Rain = 0
KEA1 240139Z 01007KT 10/08 A3007 RMK A01 T01030083  RH  087%=      5-min Rain = 0
KEA1 240140Z 00007KT 10/08 A3007 RMK A01 T01030083  RH  087%=      5-min Rain = 0
KEA1 240141Z 00007KT 10/08 A3007 RMK A01 T01020083  RH  088%=      5-min Rain = 0
KEA1 240142Z 00006KT 10/08 A3007 RMK A01 T01020083  RH  088%=      5-min Rain = 0
KEA1 240143Z 36006KT 10/08 A3007 RMK A01 T01010082  RH  088%=      5-min Rain = 0
KEA1 240144Z 36006KT 10/08 A3006 RMK A01 T01010082  RH  088%=      5-min Rain = 0
KEA1 240145Z 36005KT 10/08 A3006 RMK A01 T01000081  RH  088%=      5-min Rain = 0
KEA1 240146Z 36005KT 10/08 A3006 RMK A01 T00990081  RH  089%=      5-min Rain = 0
KEA1 240147Z 00005KT 10/08 A3006 RMK A01 T00980082  RH  089%=      5-min Rain = 0
KEA1 240148Z 00005KT 10/08 A3006 RMK A01 T00980082  RH  090%=      5-min Rain = 0
KEA1 240149Z 00005KT 10/08 A3006 RMK A01 T00980082  RH  090%=      5-min Rain = 0
KEA1 240150Z 00005KT 10/08 A3006 RMK A01 T00980083  RH  090%=      5-min Rain = 0
KEA1 240151Z 00005KT 10/08 A3006 RMK A01 T00980083  RH  091%=      5-min Rain = 0
KEA1 240152Z 00005KT 10/08 A3006 RMK A01 T00970083  RH  090%=      5-min Rain = 0
KEA1 240153Z 00005KT 10/08 A3006 RMK A01 T00970082  RH  090%=      5-min Rain = 0
KEA1 240154Z 00005KT 10/08 A3006 RMK A01 T00970082  RH  090%=      5-min Rain = 0
KEA1 240155Z 00006KT 10/08 A3006 RMK A01 T00960081  RH  090%=      5-min Rain = 0
KEA1 240156Z 36006KT 10/08 A3006 RMK A01 T00960081  RH  090%=      5-min Rain = 0
KEA1 240157Z 36006KT 10/08 A3006 RMK A01 T00950080  RH  091%=      5-min Rain = 0
KEA1 240158Z 00007KT 09/08 A3006 RMK A01 T00940080  RH  091%=      5-min Rain = 0
KEA1 240159Z 00007KT 09/08 A3006 RMK A01 T00940079  RH  091%=      5-min Rain = 0
KEA1 240200Z 00007KT 09/08 A3006 RMK A01 T00930079  RH  091%=      5-min Rain = 0
KEA1 240201Z 00007KT 09/08 A3006 RMK A01 T00930079  RH  091%=      5-min Rain = 0
KEA1 240202Z 00006KT 09/08 A3006 RMK A01 T00920079  RH  091%=      5-min Rain = 0
KEA1 240203Z 36006KT 09/08 A3005 RMK A01 T00920079  RH  092%=      5-min Rain = 0
KEA1 240204Z 00006KT 09/08 A3006 RMK A01 T00920079  RH  092%=      5-min Rain = 0
KEA1 240205Z 00006KT 09/08 A3006 RMK A01 T00920080  RH  092%=      5-min Rain = 0
KEA1 240206Z 00006KT 09/08 A3006 RMK A01 T00920079  RH  092%=      5-min Rain = 0
KEA1 240207Z 00006KT 09/08 A3005 RMK A01 T00920080  RH  092%=      5-min Rain = 0
KEA1 240208Z 00006KT 09/08 A3005 RMK A01 T00920079  RH  092%=      5-min Rain = 0
KEA1 240209Z 01006KT 09/08 A3005 RMK A01 T00910078  RH  092%=      5-min Rain = 0
KEA1 240210Z 01006KT 09/08 A3005 RMK A01 T00900078  RH  092%=      5-min Rain = 0
KEA1 240211Z 01006KT 09/08 A3005 RMK A01 T00900077  RH  092%=      5-min Rain = 0
KEA1 240212Z 01006KT 09/08 A3005 RMK A01 T00890077  RH  092%=      5-min Rain = 0
KEA1 240213Z 01006KT 09/08 A3005 RMK A01 T00890077  RH  092%=      5-min Rain = 0
KEA1 240214Z 01006KT 09/08 A3005 RMK A01 T00890077  RH  092%=      5-min Rain = 0
KEA1 240215Z 01007KT 09/08 A3005 RMK A01 T00890077  RH  093%=      5-min Rain = 0
KEA1 240216Z 01007KT 09/08 A3005 RMK A01 T00880077  RH  093%=      5-min Rain = 0
KEA1 240217Z 01006KT 09/08 A3005 RMK A01 T00890078  RH  093%=      5-min Rain = 0
KEA1 240218Z 01006KT 09/08 A3006 RMK A01 T00890077  RH  093%=      5-min Rain = 0
KEA1 240219Z 00006KT 09/08 A3006 RMK A01 T00880077  RH  093%=      5-min Rain = 0
KEA1 240220Z 00006KT 09/08 A3006 RMK A01 T00870076  RH  093%=      5-min Rain = 0
KEA1 240221Z 00006KT 09/08 A3006 RMK A01 T00860075  RH  093%=      5-min Rain = 0
KEA1 240222Z 00006KT 09/08 A3006 RMK A01 T00860075  RH  093%=      5-min Rain = 0
KEA1 240223Z 00006KT 09/07 A3006 RMK A01 T00850074  RH  093%=      5-min Rain = 0
KEA1 240224Z 00006KT 09/07 A3006 RMK A01 T00850074  RH  093%=      5-min Rain = 0
KEA1 240225Z 00006KT 09/07 A3006 RMK A01 T00850074  RH  093%=      5-min Rain = 0
KEA1 240226Z 00006KT 09/08 A3006 RMK A01 T00850075  RH  094%=      5-min Rain = 0
KEA1 240227Z 00006KT 09/08 A3006 RMK A01 T00850075  RH  094%=      5-min Rain = 0
KEA1 240228Z 36006KT 09/08 A3006 RMK A01 T00850075  RH  094%=      5-min Rain = 0
KEA1 240229Z 00006KT 09/08 A3006 RMK A01 T00850075  RH  094%=      5-min Rain = 0
KEA1 240230Z 36006KT 09/08 A3006 RMK A01 T00850075  RH  094%=      5-min Rain = 0
KEA1 240231Z 36006KT 09/08 A3006 RMK A01 T00850075  RH  094%=      5-min Rain = 0
KEA1 240232Z 36007KT 09/08 A3006 RMK A01 T00850075  RH  094%=      5-min Rain = 0
KEA1 240233Z 36007KT 09/08 A3006 RMK A01 T00850076  RH  094%=      5-min Rain = 0
KEA1 240234Z 36007KT 09/08 A3006 RMK A01 T00850076  RH  094%=      5-min Rain = 0
KEA1 240235Z 36007KT 09/08 A3006 RMK A01 T00850076  RH  094%=      5-min Rain = 0
KEA1 240236Z 36007KT 09/08 A3006 RMK A01 T00850077  RH  094%=      5-min Rain = 0
KEA1 240237Z 36007KT 09/08 A3006 RMK A01 T00860077  RH  094%=      5-min Rain = 0
KEA1 240238Z 36007KT 09/08 A3006 RMK A01 T00860077  RH  094%=      5-min Rain = 0
KEA1 240239Z 00007KT 09/08 A3006 RMK A01 T00860077  RH  094%=      5-min Rain = 0
KEA1 240240Z 00007KT 09/08 A3006 RMK A01 T00860077  RH  094%=      5-min Rain = 0
KEA1 240241Z 00007KT 09/08 A3006 RMK A01 T00860077  RH  094%=      5-min Rain = 0
KEA1 240242Z 00007KT 09/08 A3006 RMK A01 T00860076  RH  094%=      5-min Rain = 0
KEA1 240243Z 00007KT 09/08 A3006 RMK A01 T00860076  RH  094%=      5-min Rain = 0
KEA1 240244Z 00007KT 09/08 A3006 RMK A01 T00860076  RH  094%=      5-min Rain = 0
KEA1 240245Z 00006KT 09/08 A3007 RMK A01 T00860077  RH  094%=      5-min Rain = 0
KEA1 240246Z 00006KT 09/08 A3007 RMK A01 T00860077  RH  094%=      5-min Rain = 0
KEA1 240247Z 00006KT 09/08 A3007 RMK A01 T00860077  RH  094%=      5-min Rain = 0
KEA1 240248Z 00006KT 09/08 A3007 RMK A01 T00860077  RH  094%=      5-min Rain = 0
KEA1 240249Z 00006KT 09/08 A3007 RMK A01 T00860077  RH  094%=      5-min Rain = 0
KEA1 240250Z 00006KT 09/08 A3007 RMK A01 T00860077  RH  094%=      5-min Rain = 0
KEA1 240251Z 00006KT 09/08 A3007 RMK A01 T00860077  RH  094%=      5-min Rain = 0
KEA1 240252Z 00005KT 09/08 A3007 RMK A01 T00860077  RH  094%=      5-min Rain = 0
KEA1 240253Z 00005KT 09/08 A3007 RMK A01 T00860077  RH  094%=      5-min Rain = 0
KEA1 240254Z 01005KT 09/08 A3007 RMK A01 T00860076  RH  094%=      5-min Rain = 0
KEA1 240255Z 01005KT 09/08 A3007 RMK A01 T00860076  RH  094%=      5-min Rain = 0
KEA1 240256Z 01005KT 09/08 A3007 RMK A01 T00850076  RH  094%=      5-min Rain = 0
KEA1 240257Z 01005KT 09/08 A3007 RMK A01 T00850076  RH  094%=      5-min Rain = 0
KEA1 240258Z 01005KT 09/08 A3007 RMK A01 T00850076  RH  094%=      5-min Rain = 0
KEA1 240259Z 01005KT 09/08 A3007 RMK A01 T00850075  RH  094%=      5-min Rain = 0
KEA1 240300Z 01005KT 09/08 A3007 RMK A01 T00850076  RH  094%=      5-min Rain = 0
KEA1 240301Z 02005KT 09/08 A3007 RMK A01 T00850076  RH  094%=      5-min Rain = 0
KEA1 240302Z 02005KT 08/08 A3007 RMK A01 T00840075  RH  094%=      5-min Rain = 0
KEA1 240303Z 02005KT 08/08 A3007 RMK A01 T00840076  RH  094%=      5-min Rain = 0
KEA1 240304Z 02004KT 08/08 A3007 RMK A01 T00840075  RH  094%=      5-min Rain = 0
KEA1 240305Z 02004KT 08/08 A3007 RMK A01 T00840075  RH  094%=      5-min Rain = 0
KEA1 240306Z 02005KT 08/08 A3007 RMK A01 T00840075  RH  094%=      5-min Rain = 0
KEA1 240307Z 02005KT 08/07 A3007 RMK A01 T00830074  RH  094%=      5-min Rain = 0
KEA1 240308Z 02005KT 08/07 A3007 RMK A01 T00830074  RH  094%=      5-min Rain = 0
KEA1 240309Z 02005KT 08/07 A3007 RMK A01 T00820074  RH  094%=      5-min Rain = 0
KEA1 240310Z 02006KT 08/07 A3007 RMK A01 T00820074  RH  095%=      5-min Rain = 0
KEA1 240311Z 02006KT 08/08 A3007 RMK A01 T00820075  RH  095%=      5-min Rain = 0
KEA1 240312Z 02006KT 08/08 A3007 RMK A01 T00830075  RH  095%=      5-min Rain = 0
KEA1 240313Z 01006KT 08/08 A3007 RMK A01 T00820075  RH  095%=      5-min Rain = 0
KEA1 240314Z 01006KT 08/08 A3007 RMK A01 T00830075  RH  095%=      5-min Rain = 0
KEA1 240315Z 01006KT 08/08 A3007 RMK A01 T00830075  RH  095%=      5-min Rain = 0
KEA1 240316Z 01006KT 08/08 A3007 RMK A01 T00830075  RH  095%=      5-min Rain = 0
KEA1 240317Z 01006KT 08/07 A3007 RMK A01 T00830074  RH  095%=      5-min Rain = 0
KEA1 240318Z 01006KT 08/07 A3007 RMK A01 T00820073  RH  094%=      5-min Rain = 0
KEA1 240319Z 01006KT 08/07 A3007 RMK A01 T00810073  RH  094%=      5-min Rain = 0
KEA1 240320Z 01005KT 08/07 A3007 RMK A01 T00810072  RH  094%=      5-min Rain = 0
KEA1 240321Z 01005KT 08/07 A3007 RMK A01 T00810072  RH  094%=      5-min Rain = 0
KEA1 240322Z 01004KT 08/07 A3007 RMK A01 T00810072  RH  095%=      5-min Rain = 0
KEA1 240323Z 02004KT 08/07 A3008 RMK A01 T00800072  RH  095%=      5-min Rain = 0
KEA1 240324Z 03003KT 08/07 A3008 RMK A01 T00810073  RH  095%=      5-min Rain = 0
KEA1 240325Z 05002KT 08/07 A3008 RMK A01 T00810073  RH  095%=      5-min Rain = 0
KEA1 240326Z 06002KT 08/07 A3008 RMK A01 T00810072  RH  094%=      5-min Rain = 0
KEA1 240327Z 07003KT 08/07 A3009 RMK A01 T00790070  RH  094%=      5-min Rain = 0
KEA1 240328Z 07003KT 08/07 A3009 RMK A01 T00790070  RH  094%=      5-min Rain = 0
KEA1 240329Z 08003KT 08/07 A3009 RMK A01 T00780070  RH  094%=      5-min Rain = 0
KEA1 240330Z 07004KT 08/07 A3009 RMK A01 T00790070  RH  094%=      5-min Rain = 0
KEA1 240331Z 07004KT 08/07 A3008 RMK A01 T00790072  RH  095%=      5-min Rain = 0
KEA1 240332Z 06004KT 08/07 A3008 RMK A01 T00810073  RH  095%=      5-min Rain = 0
KEA1 240333Z 06005KT 08/07 A3008 RMK A01 T00810073  RH  095%=      5-min Rain = 0
KEA1 240334Z 05005KT 08/07 A3008 RMK A01 T00810072  RH  094%=      5-min Rain = 0
KEA1 240335Z 05005KT 08/07 A3008 RMK A01 T00800071  RH  094%=      5-min Rain = 0
KEA1 240336Z 05005KT 08/07 A3008 RMK A01 T00800072  RH  094%=      5-min Rain = 0
KEA1 240337Z 05004KT 08/07 A3008 RMK A01 T00810073  RH  095%=      5-min Rain = 0
KEA1 240338Z 05004KT 08/07 A3008 RMK A01 T00830074  RH  094%=      5-min Rain = 0
KEA1 240339Z 05004KT 08/07 A3008 RMK A01 T00820073  RH  094%=      5-min Rain = 0
KEA1 240340Z 06004KT 08/07 A3008 RMK A01 T00820073  RH  094%=      5-min Rain = 0
KEA1 240341Z 06004KT 08/07 A3008 RMK A01 T00820072  RH  093%=      5-min Rain = 0
KEA1 240342Z 06004KT 08/07 A3008 RMK A01 T00810070  RH  093%=      5-min Rain = 0
KEA1 240343Z 06004KT 08/07 A3008 RMK A01 T00800070  RH  093%=      5-min Rain = 0
KEA1 240344Z 06004KT 08/07 A3008 RMK A01 T00790070  RH  094%=      5-min Rain = 0
KEA1 240345Z 06005KT 08/07 A3008 RMK A01 T00790070  RH  094%=      5-min Rain = 0
KEA1 240346Z 06005KT 08/07 A3008 RMK A01 T00790070  RH  094%=      5-min Rain = 0
KEA1 240347Z 06005KT 08/07 A3008 RMK A01 T00790070  RH  094%=      5-min Rain = 0
KEA1 240348Z 06005KT 08/07 A3007 RMK A01 T00790070  RH  095%=      5-min Rain = 0
KEA1 240349Z 06005KT 08/07 A3007 RMK A01 T00780070  RH  095%=      5-min Rain = 0
KEA1 240350Z 06005KT 08/07 A3007 RMK A01 T00780069  RH  095%=      5-min Rain = 0
KEA1 240351Z 06005KT 08/07 A3007 RMK A01 T00770069  RH  095%=      5-min Rain = 0
KEA1 240352Z 07005KT 08/07 A3007 RMK A01 T00770069  RH  095%=      5-min Rain = 0
KEA1 240353Z 07005KT 08/07 A3007 RMK A01 T00760068  RH  095%=      5-min Rain = 0
KEA1 240354Z 06006KT 08/07 A3007 RMK A01 T00760068  RH  095%=      5-min Rain = 0
KEA1 240355Z 06006KT 08/07 A3007 RMK A01 T00750068  RH  095%=      5-min Rain = 0
KEA1 240356Z 06006KT 08/07 A3007 RMK A01 T00760069  RH  095%=      5-min Rain = 0
KEA1 240357Z 06006KT 08/07 A3007 RMK A01 T00770070  RH  095%=      5-min Rain = 0
KEA1 240358Z 06006KT 08/07 A3007 RMK A01 T00770070  RH  095%=      5-min Rain = 0
KEA1 240359Z 06006KT 08/07 A3007 RMK A01 T00770070  RH  095%=      5-min Rain = 0
KEA1 240400Z 06005KT 08/07 A3006 RMK A01 T00770070  RH  095%=      5-min Rain = 0
KEA1 240401Z 06006KT 08/07 A3006 RMK A01 T00770069  RH  095%=      5-min Rain = 0
KEA1 240402Z 06005KT 08/07 A3006 RMK A01 T00770069  RH  094%=      5-min Rain = 0
KEA1 240403Z 06005KT 08/07 A3006 RMK A01 T00770068  RH  094%=      5-min Rain = 0
KEA1 240404Z 06005KT 08/07 A3006 RMK A01 T00760068  RH  094%=      5-min Rain = 0
KEA1 240405Z 07004KT 08/07 A3005 RMK A01 T00760068  RH  094%=      5-min Rain = 0
KEA1 240406Z 07004KT 08/07 A3006 RMK A01 T00760068  RH  095%=      5-min Rain = 0
KEA1 240407Z 07004KT 08/07 A3006 RMK A01 T00760068  RH  095%=      5-min Rain = 0
KEA1 240408Z 07004KT 08/07 A3006 RMK A01 T00760068  RH  095%=      5-min Rain = 0
KEA1 240409Z 07004KT 08/07 A3006 RMK A01 T00760068  RH  095%=      5-min Rain = 0
KEA1 240410Z 07004KT 08/07 A3006 RMK A01 T00760068  RH  095%=      5-min Rain = 0
KEA1 240411Z 07004KT 08/07 A3006 RMK A01 T00760068  RH  095%=      5-min Rain = 0
KEA1 240412Z 07004KT 08/07 A3006 RMK A01 T00760068  RH  095%=      5-min Rain = 0
KEA1 240413Z 06004KT 08/07 A3006 RMK A01 T00760068  RH  095%=      5-min Rain = 0
KEA1 240414Z 05004KT 08/07 A3006 RMK A01 T00760069  RH  095%=      5-min Rain = 0
KEA1 240415Z 05004KT 08/07 A3006 RMK A01 T00770070  RH  095%=      5-min Rain = 0
KEA1 240416Z 05004KT 08/07 A3006 RMK A01 T00780071  RH  095%=      5-min Rain = 0
KEA1 240417Z 05004KT 08/07 A3006 RMK A01 T00780071  RH  095%=      5-min Rain = 0
KEA1 240418Z 05004KT 08/07 A3006 RMK A01 T00790071  RH  095%=      5-min Rain = 0
KEA1 240419Z 06004KT 08/07 A3006 RMK A01 T00790071  RH  095%=      5-min Rain = 0
KEA1 240420Z 06004KT 08/07 A3007 RMK A01 T00790070  RH  095%=      5-min Rain = 0
KEA1 240421Z 06004KT 08/07 A3007 RMK A01 T00790070  RH  094%=      5-min Rain = 0
KEA1 240422Z 07005KT 08/07 A3007 RMK A01 T00790070  RH  094%=      5-min Rain = 0
KEA1 240423Z 07005KT 08/07 A3007 RMK A01 T00790070  RH  094%=      5-min Rain = 0
KEA1 240424Z 07004KT 08/07 A3007 RMK A01 T00790070  RH  094%=      5-min Rain = 0
KEA1 240425Z 07005KT 08/07 A3007 RMK A01 T00790069  RH  094%=      5-min Rain = 0
KEA1 240426Z 07005KT 08/07 A3007 RMK A01 T00780068  RH  094%=      5-min Rain = 0
KEA1 240427Z 07005KT 08/07 A3007 RMK A01 T00780068  RH  094%=      5-min Rain = 0
KEA1 240428Z 07005KT 08/07 A3007 RMK A01 T00770068  RH  094%=      5-min Rain = 0
KEA1 240429Z 07004KT 08/07 A3007 RMK A01 T00770068  RH  094%=      5-min Rain = 0
KEA1 240430Z 07004KT 08/07 A3007 RMK A01 T00780069  RH  094%=      5-min Rain = 0
KEA1 240431Z 07004KT 08/07 A3007 RMK A01 T00780069  RH  094%=      5-min Rain = 0
KEA1 240432Z 06004KT 08/07 A3007 RMK A01 T00780070  RH  094%=      5-min Rain = 0
KEA1 240433Z 06004KT 08/07 A3007 RMK A01 T00790070  RH  094%=      5-min Rain = 0
KEA1 240434Z 06005KT 08/07 A3007 RMK A01 T00800071  RH  094%=      5-min Rain = 0
KEA1 240435Z 06004KT 08/07 A3007 RMK A01 T00800071  RH  094%=      5-min Rain = 0
KEA1 240436Z 06005KT 08/07 A3007 RMK A01 T00800070  RH  094%=      5-min Rain = 0
KEA1 240437Z 06005KT 08/07 A3007 RMK A01 T00800070  RH  093%=      5-min Rain = 0
KEA1 240438Z 06005KT 08/07 A3007 RMK A01 T00800070  RH  093%=      5-min Rain = 0
KEA1 240439Z 07005KT 08/07 A3007 RMK A01 T00790069  RH  093%=      5-min Rain = 0
KEA1 240440Z 08005KT 08/07 A3007 RMK A01 T00790069  RH  093%=      5-min Rain = 0
KEA1 240441Z 08005KT 08/07 A3007 RMK A01 T00790069  RH  093%=      5-min Rain = 0
KEA1 240442Z 08006KT 08/07 A3007 RMK A01 T00780068  RH  093%=      5-min Rain = 0
KEA1 240443Z 08006KT 08/07 A3007 RMK A01 T00770067  RH  093%=      5-min Rain = 0
KEA1 240444Z 08006KT 08/07 A3007 RMK A01 T00770067  RH  093%=      5-min Rain = 0
KEA1 240445Z 08007KT 08/07 A3007 RMK A01 T00760066  RH  093%=      5-min Rain = 0
KEA1 240446Z 08006KT 08/07 A3007 RMK A01 T00750065  RH  094%=      5-min Rain = 0
KEA1 240447Z 08007KT 07/07 A3007 RMK A01 T00740065  RH  094%=      5-min Rain = 0
KEA1 240448Z 08007KT 07/07 A3008 RMK A01 T00740065  RH  094%=      5-min Rain = 0
KEA1 240449Z 08006KT 07/07 A3008 RMK A01 T00740065  RH  094%=      5-min Rain = 0
KEA1 240450Z 09005KT 07/07 A3008 RMK A01 T00740065  RH  094%=      5-min Rain = 0
KEA1 240451Z 09005KT 07/06 A3008 RMK A01 T00730064  RH  094%=      5-min Rain = 0
KEA1 240452Z 09005KT 07/06 A3008 RMK A01 T00720064  RH  094%=      5-min Rain = 0
KEA1 240453Z 09005KT 07/06 A3007 RMK A01 T00710063  RH  095%=      5-min Rain = 0
KEA1 240454Z 09004KT 07/06 A3007 RMK A01 T00710063  RH  095%=      5-min Rain = 0
KEA1 240455Z 09005KT 07/06 A3008 RMK A01 T00710063  RH  095%=      5-min Rain = 0
KEA1 240456Z 08005KT 07/06 A3008 RMK A01 T00700063  RH  095%=      5-min Rain = 0
KEA1 240457Z 08005KT 07/06 A3008 RMK A01 T00700062  RH  095%=      5-min Rain = 0
KEA1 240458Z 08005KT 07/06 A3008 RMK A01 T00690062  RH  095%=      5-min Rain = 0
KEA1 240459Z 08005KT 07/06 A3008 RMK A01 T00690062  RH  096%=      5-min Rain = 0

Page generated in 0.1214 seconds.